Time,TemperatureF,DewpointF,PressureIn,WindDirection,WindDirectionDegrees,WindSpeedMPH,WindSpeedGustMPH,Humidity,HourlyPrecipIn,Conditions,Clouds,dailyrainin,SolarRadiationWatts/m^2,SoftwareType,DateUTC
2013-06-04 00:02:00,81.3,45.1,29.69,SE,127,11.0,-999.0,28,0.00,,,0.00,0,WeatherHawk,2013-06-04 07:02:00,
2013-06-04 00:04:00,81.1,45.8,29.69,SE,125,11.0,0.0,29,0.00,,,0.00,0,WeatherHawk,2013-06-04 07:04:00,
2013-06-04 00:09:00,80.8,45.5,29.68,ESE,122,11.0,0.0,29,0.00,,,0.00,0,WeatherHawk,2013-06-04 07:09:00,
2013-06-04 00:11:00,80.6,45.4,29.68,SE,133,13.0,0.0,29,0.00,,,0.00,0,WeatherHawk,2013-06-04 07:11:00,
2013-06-04 00:16:00,80.4,45.2,29.68,SE,126,10.0,0.0,29,0.00,,,0.00,0,WeatherHawk,2013-06-04 07:16:00,
2013-06-04 00:19:00,80.4,45.2,29.68,SE,125,11.0,0.0,29,0.00,,,0.00,0,WeatherHawk,2013-06-04 07:19:00,
2013-06-04 00:20:00,80.4,45.2,29.68,SE,124,12.0,0.0,29,0.00,,,0.00,0,WeatherHawk,2013-06-04 07:20:00,
2013-06-04 00:21:00,80.4,45.2,29.68,SE,130,11.0,0.0,29,0.00,,,0.00,0,WeatherHawk,2013-06-04 07:21:00,
2013-06-04 00:22:00,80.4,45.2,29.68,SE,130,11.0,0.0,29,0.00,,,0.00,0,WeatherHawk,2013-06-04 07:22:00,
2013-06-04 00:23:00,80.2,45.1,29.68,SE,134,9.0,0.0,29,0.00,,,0.00,0,WeatherHawk,2013-06-04 07:23:00,
2013-06-04 00:26:00,80.2,45.1,29.69,SE,131,9.0,0.0,29,0.00,,,0.00,0,WeatherHawk,2013-06-04 07:26:00,
2013-06-04 00:29:00,80.2,45.1,29.69,SE,144,9.0,0.0,29,0.00,,,0.00,0,WeatherHawk,2013-06-04 07:29:00,
2013-06-04 00:30:00,80.1,44.9,29.69,SSE,158,8.0,0.0,29,0.00,,,0.00,0,WeatherHawk,2013-06-04 07:30:00,
2013-06-04 00:33:00,80.1,44.9,29.69,SSW,206,5.0,0.0,29,0.00,,,0.00,0,WeatherHawk,2013-06-04 07:33:00,
2013-06-04 00:34:00,79.9,44.8,29.69,SSW,213,6.0,0.0,29,0.00,,,0.00,0,WeatherHawk,2013-06-04 07:34:00,
2013-06-04 00:35:00,79.9,44.8,29.69,SW,226,4.0,0.0,29,0.00,,,0.00,0,WeatherHawk,2013-06-04 07:35:00,
2013-06-04 00:36:00,79.9,44.8,29.69,SW,226,4.0,0.0,29,0.00,,,0.00,0,WeatherHawk,2013-06-04 07:36:00,
2013-06-04 00:39:00,79.3,45.2,29.69,SW,217,7.0,0.0,30,0.00,,,0.00,0,WeatherHawk,2013-06-04 07:39:00,
2013-06-04 00:41:00,79.2,45.0,29.69,SW,214,4.0,0.0,30,0.00,,,0.00,0,WeatherHawk,2013-06-04 07:41:00,
2013-06-04 00:45:00,79.3,44.3,29.69,South,183,5.0,0.0,29,0.00,,,0.00,0,WeatherHawk,2013-06-04 07:45:00,
2013-06-04 00:46:00,79.3,44.3,29.69,South,183,5.0,-999.0,29,0.00,,,0.00,0,WeatherHawk,2013-06-04 07:46:00,
2013-06-04 00:47:00,79.5,44.5,29.69,South,191,5.0,0.0,29,0.00,,,0.00,0,WeatherHawk,2013-06-04 07:47:00,
2013-06-04 00:51:00,79.7,44.6,29.69,SSW,213,5.0,0.0,29,0.00,,,0.00,0,WeatherHawk,2013-06-04 07:51:00,
2013-06-04 00:53:00,79.5,45.3,29.69,SW,223,6.0,0.0,30,0.00,,,0.00,0,WeatherHawk,2013-06-04 07:53:00,
2013-06-04 00:54:00,79.3,46.1,29.69,West,265,5.0,0.0,31,0.00,,,0.00,0,WeatherHawk,2013-06-04 07:54:00,
2013-06-04 00:56:00,79.3,46.1,29.69,West,265,5.0,-999.0,31,0.00,,,0.00,0,WeatherHawk,2013-06-04 07:56:00,
2013-06-04 01:01:00,76.8,46.3,29.69,West,261,5.0,0.0,34,0.00,,,0.00,0,WeatherHawk,2013-06-04 08:01:00,
2013-06-04 01:06:00,76.6,46.1,29.69,West,276,4.0,0.0,34,0.00,,,0.00,0,WeatherHawk,2013-06-04 08:06:00,
2013-06-04 01:11:00,76.6,46.1,29.70,WNW,287,5.0,0.0,34,0.00,,,0.00,0,WeatherHawk,2013-06-04 08:11:00,
2013-06-04 01:15:00,75.4,47.3,29.70,NW,324,3.0,0.0,37,0.00,,,0.00,0,WeatherHawk,2013-06-04 08:15:00,
2013-06-04 01:16:00,75.4,47.3,29.70,NW,324,3.0,0.0,37,0.00,,,0.00,0,WeatherHawk,2013-06-04 08:16:00,
2013-06-04 01:21:00,75.0,47.0,29.70,NW,311,5.0,0.0,37,0.00,,,0.00,0,WeatherHawk,2013-06-04 08:21:00,
2013-06-04 01:25:00,75.4,47.3,29.70,NNW,338,3.0,0.0,37,0.00,,,0.00,0,WeatherHawk,2013-06-04 08:25:00,
2013-06-04 01:26:00,75.4,47.3,29.70,NNW,338,3.0,0.0,37,0.00,,,0.00,0,WeatherHawk,2013-06-04 08:26:00,
2013-06-04 01:30:00,75.7,46.9,29.70,NW,325,3.0,0.0,36,0.00,,,0.00,0,WeatherHawk,2013-06-04 08:30:00,
2013-06-04 01:31:00,75.7,46.9,29.70,NW,325,3.0,0.0,36,0.00,,,0.00,0,WeatherHawk,2013-06-04 08:31:00,
2013-06-04 01:34:00,76.1,46.4,29.70,NNW,337,3.0,0.0,35,0.00,,,0.00,0,WeatherHawk,2013-06-04 08:34:00,
2013-06-04 01:35:00,76.3,46.6,29.70,NNW,343,3.0,0.0,35,0.00,,,0.00,0,WeatherHawk,2013-06-04 08:35:00,
2013-06-04 01:37:00,76.1,47.2,29.70,North,354,3.0,0.0,36,0.00,,,0.00,0,WeatherHawk,2013-06-04 08:37:00,
2013-06-04 01:41:00,75.7,46.9,29.70,NNW,344,5.0,0.0,36,0.00,,,0.00,0,WeatherHawk,2013-06-04 08:41:00,
2013-06-04 01:42:00,75.9,47.0,29.70,North,359,4.0,0.0,36,0.00,,,0.00,0,WeatherHawk,2013-06-04 08:42:00,
2013-06-04 01:46:00,74.8,46.8,29.70,North,359,2.0,0.0,37,0.00,,,0.00,0,WeatherHawk,2013-06-04 08:46:00,
2013-06-04 01:47:00,74.8,46.8,29.70,NNW,333,2.0,0.0,37,0.00,,,0.00,0,WeatherHawk,2013-06-04 08:47:00,
2013-06-04 01:51:00,75.0,46.2,29.70,NNW,327,4.0,0.0,36,0.00,,,0.00,0,WeatherHawk,2013-06-04 08:51:00,
2013-06-04 01:53:00,75.2,46.4,29.70,NNW,329,4.0,0.0,36,0.00,,,0.00,0,WeatherHawk,2013-06-04 08:53:00,
2013-06-04 01:56:00,75.2,46.4,29.70,NNW,329,4.0,-999.0,36,0.00,,,0.00,0,WeatherHawk,2013-06-04 08:56:00,
2013-06-04 02:01:00,75.4,46.6,29.70,ENE,59,2.0,0.0,36,0.00,,,0.00,1,WeatherHawk,2013-06-04 09:01:00,
2013-06-04 02:02:00,75.4,46.6,29.70,ENE,59,3.0,0.0,36,0.00,,,0.00,0,WeatherHawk,2013-06-04 09:02:00,
2013-06-04 02:03:00,75.4,46.6,29.70,NE,38,3.0,0.0,36,0.00,,,0.00,0,WeatherHawk,2013-06-04 09:03:00,
2013-06-04 02:06:00,75.0,46.2,29.70,NE,41,3.0,0.0,36,0.00,,,0.00,0,WeatherHawk,2013-06-04 09:06:00,
2013-06-04 02:08:00,74.8,46.8,29.70,NE,54,3.0,0.0,37,0.00,,,0.00,0,WeatherHawk,2013-06-04 09:08:00,
2013-06-04 02:11:00,74.7,46.6,29.70,ENE,67,3.0,0.0,37,0.00,,,0.00,0,WeatherHawk,2013-06-04 09:11:00,
2013-06-04 02:12:00,74.7,46.6,29.70,ENE,67,3.0,0.0,37,0.00,,,0.00,0,WeatherHawk,2013-06-04 09:12:00,
2013-06-04 02:13:00,74.7,46.6,29.70,East,79,3.0,0.0,37,0.00,,,0.00,0,WeatherHawk,2013-06-04 09:13:00,
2013-06-04 02:15:00,74.5,46.5,29.70,NNE,23,2.0,0.0,37,0.00,,,0.00,0,WeatherHawk,2013-06-04 09:15:00,
2013-06-04 02:17:00,74.5,46.5,29.70,NNE,23,2.0,0.0,37,0.00,,,0.00,0,WeatherHawk,2013-06-04 09:17:00,
2013-06-04 02:20:00,74.7,46.6,29.70,NNE,12,2.0,0.0,37,0.00,,,0.00,0,WeatherHawk,2013-06-04 09:20:00,
2013-06-04 02:26:00,75.6,46.7,29.70,NNW,332,3.0,0.0,36,0.00,,,0.00,0,WeatherHawk,2013-06-04 09:26:00,
2013-06-04 02:27:00,75.6,46.7,29.70,NNW,330,3.0,0.0,36,0.00,,,0.00,0,WeatherHawk,2013-06-04 09:27:00,
2013-06-04 02:28:00,75.7,46.1,29.70,NNW,340,2.0,0.0,35,0.00,,,0.00,0,WeatherHawk,2013-06-04 09:28:00,
2013-06-04 02:30:00,75.6,46.0,29.70,North,3,2.0,0.0,35,0.00,,,0.00,0,WeatherHawk,2013-06-04 09:30:00,
2013-06-04 02:31:00,75.6,46.0,29.70,North,359,2.0,0.0,35,0.00,,,0.00,1,WeatherHawk,2013-06-04 09:31:00,
2013-06-04 02:32:00,75.6,46.0,29.70,North,359,2.0,0.0,35,0.00,,,0.00,1,WeatherHawk,2013-06-04 09:32:00,
2013-06-04 02:37:00,76.1,46.4,29.70,NNE,33,2.0,0.0,35,0.00,,,0.00,0,WeatherHawk,2013-06-04 09:37:00,
2013-06-04 02:42:00,76.1,46.4,29.70,ESE,102,2.0,0.0,35,0.00,,,0.00,0,WeatherHawk,2013-06-04 09:42:00,
2013-06-04 02:45:00,75.7,46.9,29.70,ESE,122,2.0,0.0,36,0.00,,,0.00,0,WeatherHawk,2013-06-04 09:45:00,
2013-06-04 02:48:00,75.4,46.6,29.70,SSE,150,1.0,0.0,36,0.00,,,0.00,0,WeatherHawk,2013-06-04 09:48:00,
2013-06-04 02:50:00,75.4,47.3,29.70,South,174,2.0,0.0,37,0.00,,,0.00,0,WeatherHawk,2013-06-04 09:50:00,
2013-06-04 02:55:00,76.5,47.5,29.70,SE,137,3.0,0.0,36,0.00,,,0.00,0,WeatherHawk,2013-06-04 09:55:00,
2013-06-04 02:56:00,76.6,47.7,29.70,SE,131,3.0,0.0,36,0.00,,,0.00,0,WeatherHawk,2013-06-04 09:56:00,
2013-06-04 03:00:00,76.5,47.5,29.70,SE,128,3.0,0.0,36,0.00,,,0.00,0,WeatherHawk,2013-06-04 10:00:00,
2013-06-04 03:02:00,76.5,47.5,29.70,SE,128,3.0,0.0,36,0.00,,,0.00,0,WeatherHawk,2013-06-04 10:02:00,
2013-06-04 03:04:00,75.4,48.0,29.70,SSE,156,3.0,0.0,38,0.00,,,0.00,0,WeatherHawk,2013-06-04 10:04:00,
2013-06-04 03:06:00,75.2,47.8,29.70,SSE,158,3.0,0.0,38,0.00,,,0.00,0,WeatherHawk,2013-06-04 10:06:00,
2013-06-04 03:07:00,75.2,47.8,29.70,SSE,158,3.0,-999.0,38,0.00,,,0.00,0,WeatherHawk,2013-06-04 10:07:00,
2013-06-04 03:10:00,75.7,48.3,29.70,SE,146,6.0,0.0,38,0.00,,,0.00,0,WeatherHawk,2013-06-04 10:10:00,
2013-06-04 03:11:00,75.9,48.5,29.70,SE,142,6.0,0.0,38,0.00,,,0.00,0,WeatherHawk,2013-06-04 10:11:00,
2013-06-04 03:12:00,75.9,48.5,29.70,SE,142,6.0,0.0,38,0.00,,,0.00,0,WeatherHawk,2013-06-04 10:12:00,
2013-06-04 03:17:00,75.7,49.0,29.70,SE,126,4.0,0.0,39,0.00,,,0.00,0,WeatherHawk,2013-06-04 10:17:00,
2013-06-04 03:19:00,75.7,49.7,29.70,SE,131,8.0,0.0,40,0.00,,,0.00,0,WeatherHawk,2013-06-04 10:19:00,
2013-06-04 03:21:00,75.9,49.8,29.70,SE,128,7.0,0.0,40,0.00,,,0.00,0,WeatherHawk,2013-06-04 10:21:00,
2013-06-04 03:22:00,75.9,49.8,29.70,SE,128,7.0,0.0,40,0.00,,,0.00,0,WeatherHawk,2013-06-04 10:22:00,
2013-06-04 03:25:00,76.1,50.7,29.70,SE,125,7.0,0.0,41,0.00,,,0.00,0,WeatherHawk,2013-06-04 10:25:00,
2013-06-04 03:27:00,76.3,50.8,29.70,ESE,123,7.0,-999.0,41,0.00,,,0.00,0,WeatherHawk,2013-06-04 10:27:00,
2013-06-04 03:28:00,76.5,51.0,29.70,SE,130,7.0,0.0,41,0.00,,,0.00,0,WeatherHawk,2013-06-04 10:28:00,
2013-06-04 03:32:00,76.6,51.2,29.70,SE,128,7.0,0.0,41,0.00,,,0.00,0,WeatherHawk,2013-06-04 10:32:00,
2013-06-04 03:33:00,76.6,51.2,29.70,SE,129,9.0,0.0,41,0.00,,,0.00,0,WeatherHawk,2013-06-04 10:33:00,
2013-06-04 03:35:00,76.6,51.2,29.70,SE,129,9.0,0.0,41,0.00,,,0.00,0,WeatherHawk,2013-06-04 10:35:00,
2013-06-04 03:37:00,76.8,51.3,29.70,SE,132,9.0,-999.0,41,0.00,,,0.00,0,WeatherHawk,2013-06-04 10:37:00,
2013-06-04 03:41:00,76.6,51.2,29.70,SE,136,8.0,0.0,41,0.00,,,0.00,0,WeatherHawk,2013-06-04 10:41:00,
2013-06-04 03:42:00,76.6,51.2,29.70,SE,136,8.0,0.0,41,0.00,,,0.00,0,WeatherHawk,2013-06-04 10:42:00,
2013-06-04 03:44:00,76.6,51.2,29.70,SE,143,9.0,0.0,41,0.00,,,0.00,0,WeatherHawk,2013-06-04 10:44:00,
2013-06-04 03:46:00,76.6,51.2,29.71,SSE,151,9.0,0.0,41,0.00,,,0.00,0,WeatherHawk,2013-06-04 10:46:00,
2013-06-04 03:47:00,76.5,51.0,29.71,SSE,148,9.0,0.0,41,0.00,,,0.00,0,WeatherHawk,2013-06-04 10:47:00,
2013-06-04 03:49:00,76.5,51.0,29.71,SSE,163,8.0,0.0,41,0.00,,,0.00,0,WeatherHawk,2013-06-04 10:49:00,
2013-06-04 03:51:00,76.3,50.8,29.71,SSE,168,7.0,0.0,41,0.00,,,0.00,0,WeatherHawk,2013-06-04 10:51:00,
2013-06-04 03:52:00,76.3,51.5,29.71,South,172,6.0,0.0,42,0.00,,,0.00,0,WeatherHawk,2013-06-04 10:52:00,
2013-06-04 03:55:00,75.9,51.2,29.71,South,171,6.0,0.0,42,0.00,,,0.00,0,WeatherHawk,2013-06-04 10:55:00,
2013-06-04 03:57:00,75.6,51.5,29.71,South,171,6.0,0.0,43,0.00,,,0.00,0,WeatherHawk,2013-06-04 10:57:00,
2013-06-04 03:59:00,75.4,51.3,29.71,SSE,164,7.0,0.0,43,0.00,,,0.00,0,WeatherHawk,2013-06-04 10:59:00,
2013-06-04 04:02:00,75.2,51.1,29.71,SSE,157,6.0,0.0,43,0.00,,,0.00,0,WeatherHawk,2013-06-04 11:02:00,
2013-06-04 04:04:00,75.0,51.6,29.71,SE,133,7.0,0.0,44,0.00,,,0.00,0,WeatherHawk,2013-06-04 11:04:00,
2013-06-04 04:07:00,74.8,51.4,29.71,ESE,121,6.0,0.0,44,0.00,,,0.00,0,WeatherHawk,2013-06-04 11:07:00,
2013-06-04 04:11:00,75.0,51.6,29.71,SE,132,7.0,0.0,44,0.00,,,0.00,0,WeatherHawk,2013-06-04 11:11:00,
2013-06-04 04:12:00,75.0,51.6,29.71,SE,132,7.0,-999.0,44,0.00,,,0.00,0,WeatherHawk,2013-06-04 11:12:00,
2013-06-04 04:13:00,74.8,51.4,29.71,SE,134,7.0,0.0,44,0.00,,,0.00,0,WeatherHawk,2013-06-04 11:13:00,
2013-06-04 04:16:00,75.0,51.6,29.71,SE,127,9.0,0.0,44,0.00,,,0.00,0,WeatherHawk,2013-06-04 11:16:00,
2013-06-04 04:17:00,75.0,51.6,29.71,SE,127,9.0,0.0,44,0.00,,,0.00,0,WeatherHawk,2013-06-04 11:17:00,
2013-06-04 04:18:00,75.0,51.6,29.71,SE,133,8.0,0.0,44,0.00,,,0.00,0,WeatherHawk,2013-06-04 11:18:00,
2013-06-04 04:19:00,75.2,51.8,29.71,SE,146,9.0,0.0,44,0.00,,,0.00,0,WeatherHawk,2013-06-04 11:19:00,
2013-06-04 04:22:00,75.0,51.6,29.71,SE,137,7.0,0.0,44,0.00,,,0.00,0,WeatherHawk,2013-06-04 11:22:00,
2013-06-04 04:23:00,74.8,52.1,29.71,SE,130,7.0,0.0,45,0.00,,,0.00,0,WeatherHawk,2013-06-04 11:23:00,
2013-06-04 04:25:00,74.7,51.9,29.71,SE,124,7.0,0.0,45,0.00,,,0.00,0,WeatherHawk,2013-06-04 11:25:00,
2013-06-04 04:27:00,74.7,51.9,29.71,SE,124,7.0,0.0,45,0.00,,,0.00,0,WeatherHawk,2013-06-04 11:27:00,
2013-06-04 04:28:00,74.8,52.1,29.71,SE,126,9.0,0.0,45,0.00,,,0.00,0,WeatherHawk,2013-06-04 11:28:00,
2013-06-04 04:30:00,74.8,52.1,29.71,ESE,123,6.0,0.0,45,0.00,,,0.00,0,WeatherHawk,2013-06-04 11:30:00,
2013-06-04 04:32:00,74.8,52.1,29.71,SE,129,8.0,-999.0,45,0.00,,,0.00,0,WeatherHawk,2013-06-04 11:32:00,
2013-06-04 04:33:00,74.8,52.1,29.71,ESE,122,7.0,0.0,45,0.00,,,0.00,0,WeatherHawk,2013-06-04 11:33:00,
2013-06-04 04:37:00,74.8,52.1,29.71,SE,140,8.0,0.0,45,0.00,,,0.00,0,WeatherHawk,2013-06-04 11:37:00,
2013-06-04 04:39:00,75.2,52.4,29.71,ESE,118,8.0,0.0,45,0.00,,,0.00,0,WeatherHawk,2013-06-04 11:39:00,
2013-06-04 04:40:00,75.4,51.9,29.71,SE,126,7.0,0.0,44,0.00,,,0.00,0,WeatherHawk,2013-06-04 11:40:00,
2013-06-04 04:42:00,75.4,51.9,29.71,SE,126,7.0,0.0,44,0.00,,,0.00,0,WeatherHawk,2013-06-04 11:42:00,
2013-06-04 04:46:00,75.2,51.8,29.71,ESE,123,8.0,0.0,44,0.00,,,0.00,0,WeatherHawk,2013-06-04 11:46:00,
2013-06-04 04:47:00,75.2,51.8,29.71,ESE,123,8.0,0.0,44,0.00,,,0.00,0,WeatherHawk,2013-06-04 11:47:00,
2013-06-04 04:48:00,75.2,52.4,29.71,SE,138,8.0,0.0,45,0.00,,,0.00,0,WeatherHawk,2013-06-04 11:48:00,
2013-06-04 04:52:00,75.2,51.8,29.71,SE,131,6.0,0.0,44,0.00,,,0.00,0,WeatherHawk,2013-06-04 11:52:00,
2013-06-04 04:53:00,74.8,52.1,29.71,SE,124,7.0,0.0,45,0.00,,,0.00,0,WeatherHawk,2013-06-04 11:53:00,
2013-06-04 04:56:00,74.8,52.1,29.72,ESE,123,7.0,0.0,45,0.00,,,0.00,0,WeatherHawk,2013-06-04 11:56:00,
2013-06-04 04:57:00,74.8,52.1,29.72,ESE,123,7.0,-999.0,45,0.00,,,0.00,0,WeatherHawk,2013-06-04 11:57:00,
2013-06-04 04:58:00,74.8,52.1,29.72,SE,126,6.0,0.0,45,0.00,,,0.00,0,WeatherHawk,2013-06-04 11:58:00,
2013-06-04 04:59:00,74.8,52.1,29.72,ESE,120,7.0,0.0,45,0.00,,,0.00,0,WeatherHawk,2013-06-04 11:59:00,
2013-06-04 05:02:00,74.8,52.1,29.72,ESE,120,7.0,0.0,45,0.00,,,0.00,0,WeatherHawk,2013-06-04 12:02:00,
2013-06-04 05:05:00,74.7,51.9,29.72,SE,127,6.0,0.0,45,0.00,,,0.00,0,WeatherHawk,2013-06-04 12:05:00,
2013-06-04 05:07:00,74.7,51.9,29.72,SE,127,6.0,0.0,45,0.00,,,0.00,0,WeatherHawk,2013-06-04 12:07:00,
2013-06-04 05:08:00,74.7,51.9,29.72,SE,125,7.0,0.0,45,0.00,,,0.00,0,WeatherHawk,2013-06-04 12:08:00,
2013-06-04 05:12:00,74.7,51.9,29.72,SE,126,7.0,0.0,45,0.00,,,0.00,0,WeatherHawk,2013-06-04 12:12:00,
2013-06-04 05:17:00,74.5,51.1,29.72,SE,127,7.0,0.0,44,0.00,,,0.00,0,WeatherHawk,2013-06-04 12:17:00,
2013-06-04 05:18:00,74.5,51.1,29.72,SE,131,8.0,0.0,44,0.00,,,0.00,2,WeatherHawk,2013-06-04 12:18:00,
2013-06-04 05:22:00,74.7,51.3,29.72,SE,125,8.0,0.0,44,0.00,,,0.00,2,WeatherHawk,2013-06-04 12:22:00,
2013-06-04 05:27:00,74.5,51.1,29.72,SE,127,9.0,-999.0,44,0.00,,,0.00,2,WeatherHawk,2013-06-04 12:27:00,
2013-06-04 05:29:00,74.3,51.6,29.72,SE,128,8.0,0.0,45,0.00,,,0.00,5,WeatherHawk,2013-06-04 12:29:00,
2013-06-04 05:31:00,74.1,51.4,29.72,SE,129,9.0,0.0,45,0.00,,,0.00,5,WeatherHawk,2013-06-04 12:31:00,
2013-06-04 05:32:00,74.1,51.4,29.72,SE,129,9.0,0.0,45,0.00,,,0.00,5,WeatherHawk,2013-06-04 12:32:00,
2013-06-04 05:33:00,74.3,51.6,29.72,SE,128,8.0,0.0,45,0.00,,,0.00,8,WeatherHawk,2013-06-04 12:33:00,
2013-06-04 05:35:00,74.5,51.1,29.72,SE,128,8.0,0.0,44,0.00,,,0.00,10,WeatherHawk,2013-06-04 12:35:00,
2013-06-04 05:37:00,74.5,51.1,29.72,ESE,121,8.0,0.0,44,0.00,,,0.00,11,WeatherHawk,2013-06-04 12:37:00,
2013-06-04 05:41:00,74.7,51.3,29.73,ESE,121,8.0,0.0,44,0.00,,,0.00,23,WeatherHawk,2013-06-04 12:41:00,
2013-06-04 05:42:00,74.7,51.3,29.73,ESE,121,8.0,-999.0,44,0.00,,,0.00,23,WeatherHawk,2013-06-04 12:42:00,
2013-06-04 05:43:00,74.7,51.3,29.73,ESE,122,10.0,0.0,44,0.00,,,0.00,27,WeatherHawk,2013-06-04 12:43:00,
2013-06-04 05:47:00,74.8,51.4,29.73,ESE,123,8.0,0.0,44,0.00,,,0.00,31,WeatherHawk,2013-06-04 12:47:00,
2013-06-04 05:49:00,74.8,51.4,29.73,SE,131,10.0,0.0,44,0.00,,,0.00,39,WeatherHawk,2013-06-04 12:49:00,
2013-06-04 05:50:00,74.8,51.4,29.73,SE,126,7.0,0.0,44,0.00,,,0.00,39,WeatherHawk,2013-06-04 12:50:00,
2013-06-04 05:52:00,74.7,51.3,29.73,SE,127,10.0,0.0,44,0.00,,,0.00,43,WeatherHawk,2013-06-04 12:52:00,
2013-06-04 05:53:00,74.7,51.3,29.73,SE,132,9.0,0.0,44,0.00,,,0.00,47,WeatherHawk,2013-06-04 12:53:00,
2013-06-04 05:55:00,74.8,50.8,29.73,SE,136,9.0,0.0,43,0.00,,,0.00,50,WeatherHawk,2013-06-04 12:55:00,
2013-06-04 05:57:00,74.8,50.8,29.73,SE,136,7.0,0.0,43,0.00,,,0.00,53,WeatherHawk,2013-06-04 12:57:00,
2013-06-04 05:58:00,74.7,50.7,29.73,SE,130,9.0,0.0,43,0.00,,,0.00,60,WeatherHawk,2013-06-04 12:58:00,
2013-06-04 06:01:00,74.8,50.8,29.73,SE,130,9.0,0.0,43,0.00,,,0.00,67,WeatherHawk,2013-06-04 13:01:00,
2013-06-04 06:02:00,74.8,50.8,29.73,SE,130,9.0,0.0,43,0.00,,,0.00,67,WeatherHawk,2013-06-04 13:02:00,
2013-06-04 06:07:00,74.8,51.4,29.74,SE,132,8.0,-999.0,44,0.00,,,0.00,81,WeatherHawk,2013-06-04 13:07:00,
2013-06-04 06:11:00,75.0,51.6,29.74,SE,132,6.0,0.0,44,0.00,,,0.00,97,WeatherHawk,2013-06-04 13:11:00,
2013-06-04 06:12:00,75.0,51.6,29.74,SE,127,6.0,0.0,44,0.00,,,0.00,99,WeatherHawk,2013-06-04 13:12:00,
2013-06-04 06:14:00,75.0,51.6,29.74,ESE,118,7.0,0.0,44,0.00,,,0.00,104,WeatherHawk,2013-06-04 13:14:00,
2013-06-04 06:15:00,75.2,51.1,29.75,SE,136,7.0,0.0,43,0.00,,,0.00,110,WeatherHawk,2013-06-04 13:15:00,
2013-06-04 06:17:00,75.2,51.1,29.75,SE,142,8.0,0.0,43,0.00,,,0.00,113,WeatherHawk,2013-06-04 13:17:00,
2013-06-04 06:19:00,75.4,51.3,29.75,SE,143,7.0,0.0,43,0.00,,,0.00,120,WeatherHawk,2013-06-04 13:19:00,
2013-06-04 06:22:00,75.4,51.3,29.75,SE,143,7.0,0.0,43,0.00,,,0.00,120,WeatherHawk,2013-06-04 13:22:00,
2013-06-04 06:23:00,75.4,50.7,29.75,SE,144,6.0,0.0,42,0.00,,,0.00,135,WeatherHawk,2013-06-04 13:23:00,
2013-06-04 06:24:00,75.4,50.7,29.75,SSE,151,6.0,0.0,42,0.00,,,0.00,139,WeatherHawk,2013-06-04 13:24:00,
2013-06-04 06:29:00,75.4,50.7,29.75,SE,138,6.0,0.0,42,0.00,,,0.00,152,WeatherHawk,2013-06-04 13:29:00,
2013-06-04 06:32:00,75.4,50.7,29.75,SE,138,6.0,0.0,42,0.00,,,0.00,152,WeatherHawk,2013-06-04 13:32:00,
2013-06-04 06:35:00,75.4,50.7,29.75,SE,142,7.0,0.0,42,0.00,,,0.00,174,WeatherHawk,2013-06-04 13:35:00,
2013-06-04 06:37:00,75.4,50.7,29.75,SE,142,7.0,0.0,42,0.00,,,0.00,174,WeatherHawk,2013-06-04 13:37:00,
2013-06-04 06:39:00,75.6,50.8,29.75,SE,140,6.0,0.0,42,0.00,,,0.00,187,WeatherHawk,2013-06-04 13:39:00,
2013-06-04 06:41:00,75.7,51.0,29.76,SE,140,6.0,0.0,42,0.00,,,0.00,195,WeatherHawk,2013-06-04 13:41:00,
2013-06-04 06:42:00,75.7,51.0,29.76,SE,140,6.0,0.0,42,0.00,,,0.00,195,WeatherHawk,2013-06-04 13:42:00,
2013-06-04 06:43:00,75.7,51.0,29.76,SE,139,5.0,0.0,42,0.00,,,0.00,203,WeatherHawk,2013-06-04 13:43:00,
2013-06-04 06:45:00,75.9,51.2,29.76,SE,141,7.0,0.0,42,0.00,,,0.00,209,WeatherHawk,2013-06-04 13:45:00,
2013-06-04 06:47:00,75.9,51.2,29.76,SE,141,7.0,0.0,42,0.00,,,0.00,209,WeatherHawk,2013-06-04 13:47:00,
2013-06-04 06:49:00,75.9,51.2,29.76,SE,133,6.0,0.0,42,0.00,,,0.00,219,WeatherHawk,2013-06-04 13:49:00,
2013-06-04 06:51:00,76.1,51.3,29.76,SE,139,5.0,0.0,42,0.00,,,0.00,231,WeatherHawk,2013-06-04 13:51:00,
2013-06-04 06:52:00,76.1,51.3,29.76,SE,139,5.0,0.0,42,0.00,,,0.00,231,WeatherHawk,2013-06-04 13:52:00,
2013-06-04 06:57:00,76.3,50.8,29.76,SE,135,6.0,0.0,41,0.00,,,0.00,242,WeatherHawk,2013-06-04 13:57:00,
2013-06-04 07:00:00,76.8,51.3,29.76,SE,136,6.0,0.0,41,0.00,,,0.00,262,WeatherHawk,2013-06-04 14:00:00,
2013-06-04 07:02:00,76.8,51.3,29.76,SE,136,6.0,0.0,41,0.00,,,0.00,266,WeatherHawk,2013-06-04 14:02:00,
2013-06-04 07:06:00,77.0,51.5,29.76,SSE,157,5.0,0.0,41,0.00,,,0.00,285,WeatherHawk,2013-06-04 14:06:00,
2013-06-04 07:07:00,77.0,51.5,29.76,SSE,157,5.0,-999.0,41,0.00,,,0.00,285,WeatherHawk,2013-06-04 14:07:00,
2013-06-04 07:08:00,77.2,51.6,29.76,SSE,164,6.0,0.0,41,0.00,,,0.00,290,WeatherHawk,2013-06-04 14:08:00,
2013-06-04 07:12:00,77.2,51.6,29.76,SE,142,7.0,0.0,41,0.00,,,0.00,303,WeatherHawk,2013-06-04 14:12:00,
2013-06-04 07:14:00,77.2,52.3,29.76,SE,135,6.0,0.0,42,0.00,,,0.00,314,WeatherHawk,2013-06-04 14:14:00,
2013-06-04 07:16:00,77.4,51.1,29.76,SE,135,9.0,0.0,40,0.00,,,0.00,322,WeatherHawk,2013-06-04 14:16:00,
2013-06-04 07:18:00,77.4,51.8,29.76,SE,132,7.0,0.0,41,0.00,,,0.00,329,WeatherHawk,2013-06-04 14:18:00,
2013-06-04 07:21:00,77.4,51.8,29.76,SE,138,8.0,0.0,41,0.00,,,0.00,336,WeatherHawk,2013-06-04 14:21:00,
2013-06-04 07:23:00,77.5,52.6,29.76,SE,126,8.0,0.0,42,0.00,,,0.00,348,WeatherHawk,2013-06-04 14:23:00,
2013-06-04 07:25:00,77.7,52.8,29.77,SE,131,6.0,0.0,42,0.00,,,0.00,357,WeatherHawk,2013-06-04 14:25:00,
2013-06-04 07:26:00,77.7,52.8,29.77,SE,131,6.0,0.0,42,0.00,,,0.00,357,WeatherHawk,2013-06-04 14:26:00,
2013-06-04 07:29:00,78.1,53.1,29.77,SE,144,5.0,0.0,42,0.00,,,0.00,368,WeatherHawk,2013-06-04 14:29:00,
2013-06-04 07:31:00,78.4,53.4,29.77,SE,139,6.0,0.0,42,0.00,,,0.00,378,WeatherHawk,2013-06-04 14:31:00,
2013-06-04 07:32:00,78.4,53.4,29.77,SE,139,6.0,-999.0,42,0.00,,,0.00,378,WeatherHawk,2013-06-04 14:32:00,
2013-06-04 07:35:00,78.6,52.9,29.77,SE,134,9.0,0.0,41,0.00,,,0.00,386,WeatherHawk,2013-06-04 14:35:00,
2013-06-04 07:36:00,78.6,52.9,29.77,SE,134,9.0,0.0,41,0.00,,,0.00,386,WeatherHawk,2013-06-04 14:36:00,
2013-06-04 07:37:00,78.6,52.9,29.77,SE,134,9.0,-999.0,41,0.00,,,0.00,386,WeatherHawk,2013-06-04 14:37:00,
2013-06-04 07:39:00,79.3,53.6,29.77,SE,126,9.0,0.0,41,0.00,,,0.00,410,WeatherHawk,2013-06-04 14:39:00,
2013-06-04 07:41:00,79.3,53.6,29.77,SE,134,7.0,0.0,41,0.00,,,0.00,417,WeatherHawk,2013-06-04 14:41:00,
2013-06-04 07:46:00,79.3,52.9,29.77,SE,133,9.0,0.0,40,0.00,,,0.00,428,WeatherHawk,2013-06-04 14:46:00,
2013-06-04 07:47:00,79.5,53.1,29.77,SE,142,7.0,0.0,40,0.00,,,0.00,438,WeatherHawk,2013-06-04 14:47:00,
2013-06-04 07:49:00,79.9,53.4,29.77,SE,133,7.0,0.0,40,0.00,,,0.00,447,WeatherHawk,2013-06-04 14:49:00,
2013-06-04 07:51:00,80.1,52.8,29.77,SE,132,7.0,0.0,39,0.00,,,0.00,452,WeatherHawk,2013-06-04 14:51:00,
2013-06-04 07:52:00,80.2,52.3,29.77,ESE,119,8.0,0.0,38,0.00,,,0.00,457,WeatherHawk,2013-06-04 14:52:00,
2013-06-04 07:56:00,80.2,52.3,29.78,SSE,153,6.0,-999.0,38,0.00,,,0.00,470,WeatherHawk,2013-06-04 14:56:00,
2013-06-04 07:57:00,80.4,51.0,29.78,SE,141,7.0,0.0,36,0.00,,,0.00,476,WeatherHawk,2013-06-04 14:57:00,
2013-06-04 07:58:00,80.6,51.2,29.78,ESE,121,10.0,0.0,36,0.00,,,0.00,479,WeatherHawk,2013-06-04 14:58:00,
2013-06-04 08:01:00,80.6,51.9,29.78,SE,135,10.0,0.0,37,0.00,,,0.00,490,WeatherHawk,2013-06-04 15:01:00,
2013-06-04 08:03:00,80.6,51.2,29.78,SE,125,9.0,0.0,36,0.00,,,0.00,502,WeatherHawk,2013-06-04 15:03:00,
2013-06-04 08:07:00,80.6,51.2,29.78,ESE,122,11.0,0.0,36,0.00,,,0.00,504,WeatherHawk,2013-06-04 15:07:00,
2013-06-04 08:10:00,81.3,49.4,29.78,ESE,108,7.0,0.0,33,0.00,,,0.00,526,WeatherHawk,2013-06-04 15:10:00,
2013-06-04 08:11:00,81.3,49.4,29.78,ESE,108,7.0,0.0,33,0.00,,,0.00,526,WeatherHawk,2013-06-04 15:11:00,
2013-06-04 08:12:00,81.3,48.6,29.78,ESE,121,12.0,0.0,32,0.00,,,0.00,532,WeatherHawk,2013-06-04 15:12:00,
2013-06-04 08:14:00,81.3,48.6,29.78,ESE,115,10.0,0.0,32,0.00,,,0.00,540,WeatherHawk,2013-06-04 15:14:00,
2013-06-04 08:15:00,81.3,48.6,29.78,ESE,115,10.0,0.0,32,0.00,,,0.00,540,WeatherHawk,2013-06-04 15:15:00,
2013-06-04 08:18:00,81.7,48.9,29.78,SE,140,8.0,0.0,32,0.00,,,0.00,555,WeatherHawk,2013-06-04 15:18:00,
2013-06-04 08:20:00,81.7,48.9,29.78,ESE,123,12.0,0.0,32,0.00,,,0.00,564,WeatherHawk,2013-06-04 15:20:00,
2013-06-04 08:21:00,81.7,48.9,29.78,SE,128,12.0,0.0,32,0.00,,,0.00,568,WeatherHawk,2013-06-04 15:21:00,
2013-06-04 08:22:00,81.7,48.9,29.78,SE,124,9.0,-999.0,32,0.00,,,0.00,571,WeatherHawk,2013-06-04 15:22:00,
2013-06-04 08:23:00,81.9,48.2,29.78,ESE,123,9.0,0.0,31,0.00,,,0.00,576,WeatherHawk,2013-06-04 15:23:00,
2013-06-04 08:26:00,81.9,48.2,29.78,SE,125,10.0,0.0,31,0.00,,,0.00,586,WeatherHawk,2013-06-04 15:26:00,
2013-06-04 08:27:00,81.9,48.2,29.78,SE,125,10.0,-999.0,31,0.00,,,0.00,586,WeatherHawk,2013-06-04 15:27:00,
2013-06-04 08:30:00,82.2,48.5,29.78,SE,137,9.0,0.0,31,0.00,,,0.00,601,WeatherHawk,2013-06-04 15:30:00,
2013-06-04 08:33:00,82.4,48.7,29.78,SE,132,13.0,0.0,31,0.00,,,0.00,611,WeatherHawk,2013-06-04 15:33:00,
2013-06-04 08:36:00,82.2,48.5,29.78,SE,132,10.0,0.0,31,0.00,,,0.00,622,WeatherHawk,2013-06-04 15:36:00,
2013-06-04 08:40:00,82.6,48.9,29.78,SE,133,11.0,0.0,31,0.00,,,0.00,638,WeatherHawk,2013-06-04 15:40:00,
2013-06-04 08:41:00,82.6,48.9,29.78,SE,133,11.0,-999.0,31,0.00,,,0.00,638,WeatherHawk,2013-06-04 15:41:00,
2013-06-04 08:42:00,82.8,49.0,29.78,SE,139,13.0,0.0,31,0.00,,,0.00,645,WeatherHawk,2013-06-04 15:42:00,
2013-06-04 08:46:00,82.8,49.0,29.78,SE,132,13.0,0.0,31,0.00,,,0.00,655,WeatherHawk,2013-06-04 15:46:00,
2013-06-04 08:48:00,82.9,48.3,29.78,SE,128,14.0,0.0,30,0.00,,,0.00,663,WeatherHawk,2013-06-04 15:48:00,
2013-06-04 08:49:00,82.9,49.2,29.78,SE,134,13.0,0.0,31,0.00,,,0.00,667,WeatherHawk,2013-06-04 15:49:00,
2013-06-04 08:51:00,83.1,49.3,29.78,SE,138,11.0,0.0,31,0.00,,,0.00,677,WeatherHawk,2013-06-04 15:51:00,
2013-06-04 08:54:00,83.8,49.1,29.78,SE,140,15.0,0.0,30,0.00,,,0.00,687,WeatherHawk,2013-06-04 15:54:00,
2013-06-04 08:56:00,84.4,49.5,29.78,SE,137,13.0,0.0,30,0.00,,,0.00,690,WeatherHawk,2013-06-04 15:56:00,
2013-06-04 08:57:00,84.4,49.5,29.78,ESE,113,13.0,0.0,30,0.00,,,0.00,694,WeatherHawk,2013-06-04 15:57:00,
2013-06-04 09:01:00,84.0,48.3,29.78,ESE,119,12.0,-999.0,29,0.00,,,0.00,705,WeatherHawk,2013-06-04 16:01:00,
2013-06-04 09:02:00,84.0,48.3,29.78,SE,138,12.0,0.0,29,0.00,,,0.00,711,WeatherHawk,2013-06-04 16:02:00,
2013-06-04 09:04:00,84.4,48.6,29.78,ESE,115,13.0,0.0,29,0.00,,,0.00,720,WeatherHawk,2013-06-04 16:04:00,
2013-06-04 09:07:00,84.4,48.6,29.78,ESE,112,16.0,0.0,29,0.00,,,0.00,722,WeatherHawk,2013-06-04 16:07:00,
2013-06-04 09:08:00,84.9,48.1,29.78,SE,138,17.0,0.0,28,0.00,,,0.00,733,WeatherHawk,2013-06-04 16:08:00,
2013-06-04 09:14:00,85.1,47.3,29.78,SE,139,19.0,0.0,27,0.00,,,0.00,754,WeatherHawk,2013-06-04 16:14:00,
2013-06-04 09:16:00,85.1,47.3,29.78,SE,139,19.0,0.0,27,0.00,,,0.00,754,WeatherHawk,2013-06-04 16:16:00,
2013-06-04 09:18:00,85.1,47.3,29.78,SE,131,18.0,0.0,27,0.00,,,0.00,767,WeatherHawk,2013-06-04 16:18:00,
2013-06-04 09:21:00,85.1,47.3,29.78,SE,131,18.0,0.0,27,0.00,,,0.00,767,WeatherHawk,2013-06-04 16:21:00,
2013-06-04 09:25:00,85.6,47.8,29.78,SE,138,17.0,0.0,27,0.00,,,0.00,791,WeatherHawk,2013-06-04 16:25:00,
2013-06-04 09:26:00,85.6,46.8,29.78,ESE,122,19.0,-999.0,26,0.00,,,0.00,793,WeatherHawk,2013-06-04 16:26:00,
2013-06-04 09:27:00,85.6,47.8,29.78,SE,138,17.0,0.0,27,0.00,,,0.00,793,WeatherHawk,2013-06-04 16:27:00,
2013-06-04 09:30:00,85.6,46.8,29.78,SE,128,13.0,0.0,26,0.00,,,0.00,803,WeatherHawk,2013-06-04 16:30:00,
2013-06-04 09:31:00,85.6,46.8,29.78,SE,128,13.0,0.0,26,0.00,,,0.00,803,WeatherHawk,2013-06-04 16:31:00,
2013-06-04 09:36:00,86.2,46.2,29.78,SE,137,17.0,-999.0,25,0.00,,,0.00,819,WeatherHawk,2013-06-04 16:36:00,
2013-06-04 09:38:00,86.4,46.4,29.78,ESE,118,17.0,0.0,25,0.00,,,0.00,827,WeatherHawk,2013-06-04 16:38:00,
2013-06-04 09:41:00,86.4,47.4,29.78,SE,124,13.0,0.0,26,0.00,,,0.00,836,WeatherHawk,2013-06-04 16:41:00,
2013-06-04 09:43:00,86.7,46.7,29.78,SE,124,14.0,0.0,25,0.00,,,0.00,842,WeatherHawk,2013-06-04 16:43:00,
2013-06-04 09:44:00,86.7,45.6,29.78,ESE,114,13.0,0.0,24,0.00,,,0.00,845,WeatherHawk,2013-06-04 16:44:00,
2013-06-04 09:46:00,86.7,45.6,29.78,ESE,114,13.0,0.0,24,0.00,,,0.00,845,WeatherHawk,2013-06-04 16:46:00,
2013-06-04 09:48:00,86.9,45.7,29.78,SE,131,12.0,0.0,24,0.00,,,0.00,854,WeatherHawk,2013-06-04 16:48:00,
2013-06-04 09:49:00,87.4,45.1,29.78,SE,145,17.0,0.0,23,0.00,,,0.00,858,WeatherHawk,2013-06-04 16:49:00,
2013-06-04 09:51:00,87.1,45.9,29.78,SE,130,17.0,0.0,24,0.00,,,0.00,866,WeatherHawk,2013-06-04 16:51:00,
2013-06-04 09:55:00,87.4,46.2,29.78,SE,129,10.0,0.0,24,0.00,,,0.00,878,WeatherHawk,2013-06-04 16:55:00,
2013-06-04 09:56:00,87.8,46.5,29.78,SE,125,11.0,0.0,24,0.00,,,0.00,879,WeatherHawk,2013-06-04 16:56:00,
2013-06-04 10:01:00,87.6,45.2,29.78,ESE,111,11.0,0.0,23,0.00,,,0.00,889,WeatherHawk,2013-06-04 17:01:00,
2013-06-04 10:05:00,88.2,44.5,29.78,SE,124,12.0,0.0,22,0.00,,,0.00,903,WeatherHawk,2013-06-04 17:05:00,
2013-06-04 10:06:00,88.3,44.6,29.78,ESE,123,14.0,-999.0,22,0.00,,,0.00,905,WeatherHawk,2013-06-04 17:06:00,
2013-06-04 10:09:00,88.2,45.7,29.78,ESE,121,14.0,0.0,23,0.00,,,0.00,914,WeatherHawk,2013-06-04 17:09:00,
2013-06-04 10:11:00,88.2,45.7,29.78,ESE,121,14.0,0.0,23,0.00,,,0.00,914,WeatherHawk,2013-06-04 17:11:00,
2013-06-04 10:14:00,88.2,45.7,29.78,SE,130,13.0,0.0,23,0.00,,,0.00,926,WeatherHawk,2013-06-04 17:14:00,
2013-06-04 10:16:00,88.2,45.7,29.78,SE,130,13.0,0.0,23,0.00,,,0.00,926,WeatherHawk,2013-06-04 17:16:00,
2013-06-04 10:17:00,88.3,45.8,29.78,ESE,120,14.0,0.0,23,0.00,,,0.00,932,WeatherHawk,2013-06-04 17:17:00,
2013-06-04 10:21:00,88.3,45.8,29.79,ESE,121,13.0,-999.0,23,0.00,,,0.00,941,WeatherHawk,2013-06-04 17:21:00,
2013-06-04 10:23:00,88.2,45.7,29.79,ESE,112,13.0,0.0,23,0.00,,,0.00,946,WeatherHawk,2013-06-04 17:23:00,
2013-06-04 10:26:00,88.5,46.0,29.79,ESE,114,9.0,0.0,23,0.00,,,0.00,952,WeatherHawk,2013-06-04 17:26:00,
2013-06-04 10:28:00,88.5,47.1,29.79,ESE,102,10.0,0.0,24,0.00,,,0.00,959,WeatherHawk,2013-06-04 17:28:00,
2013-06-04 10:31:00,88.5,47.1,29.79,ESE,102,10.0,0.0,24,0.00,,,0.00,959,WeatherHawk,2013-06-04 17:31:00,
2013-06-04 10:32:00,88.7,47.2,29.79,SE,129,12.0,0.0,24,0.00,,,0.00,967,WeatherHawk,2013-06-04 17:32:00,
2013-06-04 10:35:00,88.2,46.8,29.79,SE,132,11.0,0.0,24,0.00,,,0.00,977,WeatherHawk,2013-06-04 17:35:00,
2013-06-04 10:37:00,88.9,46.3,29.79,SE,130,14.0,0.0,23,0.00,,,0.00,982,WeatherHawk,2013-06-04 17:37:00,
2013-06-04 10:38:00,88.9,47.4,29.79,SE,133,15.0,0.0,24,0.00,,,0.00,982,WeatherHawk,2013-06-04 17:38:00,
2013-06-04 10:40:00,88.9,47.4,29.79,SE,137,9.0,0.0,24,0.00,,,0.00,988,WeatherHawk,2013-06-04 17:40:00,
2013-06-04 10:41:00,88.9,47.4,29.79,SE,137,9.0,0.0,24,0.00,,,0.00,988,WeatherHawk,2013-06-04 17:41:00,
2013-06-04 10:42:00,88.7,47.2,29.79,SE,145,11.0,0.0,24,0.00,,,0.00,989,WeatherHawk,2013-06-04 17:42:00,
2013-06-04 10:46:00,88.7,47.2,29.79,SE,145,11.0,-999.0,24,0.00,,,0.00,989,WeatherHawk,2013-06-04 17:46:00,
2013-06-04 10:48:00,89.8,47.0,29.79,ESE,113,13.0,0.0,23,0.00,,,0.00,1000,WeatherHawk,2013-06-04 17:48:00,
2013-06-04 10:51:00,89.1,47.5,29.79,SE,143,12.0,0.0,24,0.00,,,0.00,1010,WeatherHawk,2013-06-04 17:51:00,
2013-06-04 10:53:00,88.9,47.4,29.79,SSE,150,11.0,0.0,24,0.00,,,0.00,1011,WeatherHawk,2013-06-04 17:53:00,
2013-06-04 10:56:00,88.9,47.4,29.79,SSE,147,12.0,0.0,24,0.00,,,0.00,1017,WeatherHawk,2013-06-04 17:56:00,
2013-06-04 10:59:00,89.6,46.9,29.79,ESE,106,6.0,0.0,23,0.00,,,0.00,1022,WeatherHawk,2013-06-04 17:59:00,
2013-06-04 11:04:00,90.0,46.0,29.79,SSE,166,10.0,0.0,22,0.00,,,0.00,1029,WeatherHawk,2013-06-04 18:04:00,
2013-06-04 11:07:00,90.3,45.0,29.79,SE,125,8.0,0.0,21,0.00,,,0.00,1034,WeatherHawk,2013-06-04 18:07:00,
2013-06-04 11:09:00,90.5,45.2,29.79,East,97,12.0,0.0,21,0.00,,,0.00,1039,WeatherHawk,2013-06-04 18:09:00,
2013-06-04 11:10:00,90.9,45.5,29.79,East,101,9.0,0.0,21,0.00,,,0.00,1039,WeatherHawk,2013-06-04 18:10:00,
2013-06-04 11:11:00,90.9,45.5,29.79,East,101,9.0,0.0,21,0.00,,,0.00,1039,WeatherHawk,2013-06-04 18:11:00,
2013-06-04 11:13:00,90.7,44.1,29.79,East,94,10.0,0.0,20,0.00,,,0.00,1045,WeatherHawk,2013-06-04 18:13:00,
2013-06-04 11:16:00,91.2,44.5,29.79,SSE,148,11.0,-999.0,20,0.00,,,0.00,1047,WeatherHawk,2013-06-04 18:16:00,
2013-06-04 11:23:00,91.0,44.4,29.79,ESE,119,10.0,0.0,20,0.00,,,0.00,1053,WeatherHawk,2013-06-04 18:23:00,
2013-06-04 11:25:00,91.8,46.2,29.79,ESE,117,11.0,0.0,21,0.00,,,0.00,1057,WeatherHawk,2013-06-04 18:25:00,
2013-06-04 11:29:00,91.8,44.9,29.79,SE,133,11.0,0.0,20,0.00,,,0.00,1062,WeatherHawk,2013-06-04 18:29:00,
2013-06-04 11:31:00,91.6,44.8,29.79,ESE,108,12.0,0.0,20,0.00,,,0.00,1066,WeatherHawk,2013-06-04 18:31:00,
2013-06-04 11:36:00,91.2,44.5,29.79,ESE,111,8.0,-999.0,20,0.00,,,0.00,1069,WeatherHawk,2013-06-04 18:36:00,
2013-06-04 11:38:00,91.6,44.8,29.79,ESE,120,6.0,0.0,20,0.00,,,0.00,1075,WeatherHawk,2013-06-04 18:38:00,
2013-06-04 11:41:00,91.6,44.8,29.79,SE,134,10.0,0.0,20,0.00,,,0.00,1076,WeatherHawk,2013-06-04 18:41:00,
2013-06-04 11:42:00,92.1,45.2,29.79,ESE,108,6.0,0.0,20,0.00,,,0.00,1082,WeatherHawk,2013-06-04 18:42:00,
2013-06-04 11:47:00,92.7,44.3,29.78,ESE,102,8.0,0.0,19,0.00,,,0.00,1084,WeatherHawk,2013-06-04 18:47:00,
2013-06-04 11:49:00,92.5,45.5,29.78,SSE,158,6.0,0.0,20,0.00,,,0.00,1089,WeatherHawk,2013-06-04 18:49:00,
2013-06-04 11:50:00,92.7,44.3,29.78,SE,146,16.0,0.0,19,0.00,,,0.00,1091,WeatherHawk,2013-06-04 18:50:00,
2013-06-04 11:51:00,92.1,42.5,29.78,SE,124,9.0,0.0,18,0.00,,,0.00,1094,WeatherHawk,2013-06-04 18:51:00,
2013-06-04 11:53:00,92.3,44.0,29.78,SE,125,9.0,0.0,19,0.00,,,0.00,1094,WeatherHawk,2013-06-04 18:53:00,
2013-06-04 11:56:00,92.7,41.4,29.78,SE,134,9.0,0.0,17,0.00,,,0.00,1092,WeatherHawk,2013-06-04 18:56:00,
2013-06-04 11:59:00,93.2,43.3,29.78,ESE,111,10.0,0.0,18,0.00,,,0.00,1101,WeatherHawk,2013-06-04 18:59:00,
2013-06-04 12:01:00,92.7,44.3,29.78,ESE,108,9.0,0.0,19,0.00,,,0.00,1100,WeatherHawk,2013-06-04 19:01:00,
2013-06-04 12:03:00,93.2,43.3,29.78,SSE,155,7.0,0.0,18,0.00,,,0.00,1100,WeatherHawk,2013-06-04 19:03:00,
2013-06-04 12:06:00,92.7,44.3,29.78,SSE,149,6.0,0.0,19,0.00,,,0.00,1099,WeatherHawk,2013-06-04 19:06:00,
2013-06-04 12:08:00,92.8,44.5,29.78,SSE,151,7.0,0.0,19,0.00,,,0.00,1102,WeatherHawk,2013-06-04 19:08:00,
2013-06-04 12:09:00,92.8,44.5,29.78,SSE,150,9.0,0.0,19,0.00,,,0.00,1101,WeatherHawk,2013-06-04 19:09:00,
2013-06-04 12:13:00,92.5,42.8,29.78,ESE,115,5.0,0.0,18,0.00,,,0.00,1101,WeatherHawk,2013-06-04 19:13:00,
2013-06-04 12:14:00,92.7,42.9,29.78,ESE,113,8.0,0.0,18,0.00,,,0.00,1104,WeatherHawk,2013-06-04 19:14:00,
2013-06-04 12:16:00,92.7,42.9,29.78,ESE,113,8.0,-999.0,18,0.00,,,0.00,1104,WeatherHawk,2013-06-04 19:16:00,
2013-06-04 12:18:00,93.7,43.8,29.78,SSE,168,10.0,0.0,18,0.00,,,0.00,1107,WeatherHawk,2013-06-04 19:18:00,
2013-06-04 12:21:00,93.9,42.4,29.78,ESE,120,8.0,0.0,17,0.00,,,0.00,1105,WeatherHawk,2013-06-04 19:21:00,
2013-06-04 12:24:00,93.7,43.8,29.78,ESE,113,11.0,0.0,18,0.00,,,0.00,1105,WeatherHawk,2013-06-04 19:24:00,
2013-06-04 12:25:00,93.6,43.6,29.78,SE,125,9.0,0.0,18,0.00,,,0.00,1107,WeatherHawk,2013-06-04 19:25:00,
2013-06-04 12:26:00,93.6,43.6,29.78,SE,125,9.0,0.0,18,0.00,,,0.00,1107,WeatherHawk,2013-06-04 19:26:00,
2013-06-04 12:31:00,93.4,42.0,29.78,ESE,111,8.0,-999.0,17,0.00,,,0.00,1106,WeatherHawk,2013-06-04 19:31:00,
2013-06-04 12:32:00,93.4,42.0,29.78,East,91,10.0,0.0,17,0.00,,,0.00,1108,WeatherHawk,2013-06-04 19:32:00,
2013-06-04 12:34:00,93.9,42.4,29.78,ESE,103,9.0,0.0,17,0.00,,,0.00,1106,WeatherHawk,2013-06-04 19:34:00,
2013-06-04 12:35:00,94.3,44.2,29.77,ESE,118,10.0,0.0,18,0.00,,,0.00,1109,WeatherHawk,2013-06-04 19:35:00,
2013-06-04 12:36:00,94.3,44.2,29.77,ESE,118,10.0,-999.0,18,0.00,,,0.00,1109,WeatherHawk,2013-06-04 19:36:00,
2013-06-04 12:40:00,93.9,43.9,29.77,SSW,194,6.0,0.0,18,0.00,,,0.00,1107,WeatherHawk,2013-06-04 19:40:00,
2013-06-04 12:41:00,93.9,43.9,29.77,SSW,194,6.0,0.0,18,0.00,,,0.00,1107,WeatherHawk,2013-06-04 19:41:00,
2013-06-04 12:46:00,94.3,44.2,29.77,ESE,114,10.0,-999.0,18,0.00,,,0.00,1108,WeatherHawk,2013-06-04 19:46:00,
2013-06-04 12:50:00,94.6,44.5,29.77,SSE,161,5.0,0.0,18,0.00,,,0.00,1110,WeatherHawk,2013-06-04 19:50:00,
2013-06-04 12:51:00,94.6,44.5,29.77,SSE,161,5.0,0.0,18,0.00,,,0.00,1110,WeatherHawk,2013-06-04 19:51:00,
2013-06-04 12:52:00,95.2,43.4,29.77,South,170,11.0,0.0,17,0.00,,,0.00,1107,WeatherHawk,2013-06-04 19:52:00,
2013-06-04 12:53:00,94.8,43.2,29.77,SSE,156,6.0,0.0,17,0.00,,,0.00,1104,WeatherHawk,2013-06-04 19:53:00,
2013-06-04 12:54:00,94.3,42.7,29.77,SE,144,3.0,0.0,17,0.00,,,0.00,1106,WeatherHawk,2013-06-04 19:54:00,
2013-06-04 12:55:00,94.6,43.0,29.77,South,187,4.0,0.0,17,0.00,,,0.00,1107,WeatherHawk,2013-06-04 19:55:00,
2013-06-04 12:59:00,95.7,43.9,29.77,ESE,122,7.0,0.0,17,0.00,,,0.00,1103,WeatherHawk,2013-06-04 19:59:00,
2013-06-04 13:01:00,95.2,43.4,29.77,ESE,120,5.0,0.0,17,0.00,,,0.00,1103,WeatherHawk,2013-06-04 20:01:00,
2013-06-04 13:06:00,95.5,43.7,29.77,SSE,165,8.0,0.0,17,0.00,,,0.00,1103,WeatherHawk,2013-06-04 20:06:00,
2013-06-04 13:07:00,95.4,43.6,29.77,SSE,161,6.0,0.0,17,0.00,,,0.00,1094,WeatherHawk,2013-06-04 20:07:00,
2013-06-04 13:08:00,95.7,43.9,29.77,ESE,106,9.0,0.0,17,0.00,,,0.00,1100,WeatherHawk,2013-06-04 20:08:00,
2013-06-04 13:09:00,96.1,44.2,29.76,East,93,7.0,0.0,17,0.00,,,0.00,1099,WeatherHawk,2013-06-04 20:09:00,
2013-06-04 13:11:00,95.9,40.8,29.76,South,181,8.0,0.0,15,0.00,,,0.00,1102,WeatherHawk,2013-06-04 20:11:00,
2013-06-04 13:15:00,95.9,42.4,29.76,ESE,123,3.0,0.0,16,0.00,,,0.00,1093,WeatherHawk,2013-06-04 20:15:00,
2013-06-04 13:17:00,95.7,42.3,29.76,ESE,112,3.0,0.0,16,0.00,,,0.00,1094,WeatherHawk,2013-06-04 20:17:00,
2013-06-04 13:20:00,97.0,41.6,29.76,SSE,154,9.0,0.0,15,0.00,,,0.00,1096,WeatherHawk,2013-06-04 20:20:00,
2013-06-04 13:21:00,97.2,41.8,29.76,South,181,7.0,0.0,15,0.00,,,0.00,1094,WeatherHawk,2013-06-04 20:21:00,
2013-06-04 13:22:00,96.8,39.7,29.76,ESE,121,9.0,0.0,14,0.00,,,0.00,1090,WeatherHawk,2013-06-04 20:22:00,
2013-06-04 13:24:00,96.3,39.3,29.76,SSE,151,6.0,0.0,14,0.00,,,0.00,1083,WeatherHawk,2013-06-04 20:24:00,
2013-06-04 13:26:00,96.1,39.1,29.76,SSE,152,6.0,0.0,14,0.00,,,0.00,1083,WeatherHawk,2013-06-04 20:26:00,
2013-06-04 13:29:00,96.3,39.3,29.76,ESE,107,3.0,0.0,14,0.00,,,0.00,1086,WeatherHawk,2013-06-04 20:29:00,
2013-06-04 13:31:00,97.3,38.2,29.76,SSW,194,9.0,0.0,13,0.00,,,0.00,1080,WeatherHawk,2013-06-04 20:31:00,
2013-06-04 13:36:00,97.2,40.0,29.76,South,170,15.0,0.0,14,0.00,,,0.00,1076,WeatherHawk,2013-06-04 20:36:00,
2013-06-04 13:37:00,96.8,39.7,29.76,SSE,150,13.0,0.0,14,0.00,,,0.00,1074,WeatherHawk,2013-06-04 20:37:00,
2013-06-04 13:41:00,97.2,40.0,29.76,SE,127,11.0,-999.0,14,0.00,,,0.00,1069,WeatherHawk,2013-06-04 20:41:00,
2013-06-04 13:42:00,97.0,39.8,29.76,SE,144,8.0,0.0,14,0.00,,,0.00,1068,WeatherHawk,2013-06-04 20:42:00,
2013-06-04 13:43:00,96.8,39.7,29.75,SSE,157,8.0,0.0,14,0.00,,,0.00,1068,WeatherHawk,2013-06-04 20:43:00,
2013-06-04 13:46:00,97.9,38.6,29.75,ESE,110,6.0,0.0,13,0.00,,,0.00,1065,WeatherHawk,2013-06-04 20:46:00,
2013-06-04 13:47:00,97.9,38.6,29.75,ESE,114,4.0,0.0,13,0.00,,,0.00,1064,WeatherHawk,2013-06-04 20:47:00,
2013-06-04 13:48:00,97.9,38.6,29.75,ESE,121,6.0,0.0,13,0.00,,,0.00,1063,WeatherHawk,2013-06-04 20:48:00,
2013-06-04 13:51:00,98.1,40.7,29.75,SE,133,12.0,0.0,14,0.00,,,0.00,1056,WeatherHawk,2013-06-04 20:51:00,
2013-06-04 13:55:00,98.1,38.8,29.75,SSE,147,11.0,0.0,13,0.00,,,0.00,1055,WeatherHawk,2013-06-04 20:55:00,
2013-06-04 13:56:00,98.1,38.8,29.75,SSE,147,11.0,0.0,13,0.00,,,0.00,1055,WeatherHawk,2013-06-04 20:56:00,
2013-06-04 13:57:00,98.1,38.8,29.75,SSE,147,11.0,-999.0,13,0.00,,,0.00,1055,WeatherHawk,2013-06-04 20:57:00,
2013-06-04 14:00:00,97.7,38.5,29.75,SE,146,8.0,0.0,13,0.00,,,0.00,1048,WeatherHawk,2013-06-04 21:00:00,
2013-06-04 14:01:00,97.5,40.3,29.75,SSE,152,9.0,-999.0,14,0.00,,,0.00,1046,WeatherHawk,2013-06-04 21:01:00,
2013-06-04 14:03:00,97.2,40.0,29.75,East,97,3.0,0.0,14,0.00,,,0.00,1043,WeatherHawk,2013-06-04 21:03:00,
2013-06-04 14:05:00,97.2,40.0,29.75,ESE,103,8.0,0.0,14,0.00,,,0.00,1038,WeatherHawk,2013-06-04 21:05:00,
2013-06-04 14:06:00,97.7,40.4,29.75,East,95,10.0,0.0,14,0.00,,,0.00,1034,WeatherHawk,2013-06-04 21:06:00,
2013-06-04 14:10:00,97.9,40.5,29.74,SE,138,8.0,0.0,14,0.00,,,0.00,1028,WeatherHawk,2013-06-04 21:10:00,
2013-06-04 14:11:00,97.5,40.3,29.74,ESE,102,11.0,-999.0,14,0.00,,,0.00,1024,WeatherHawk,2013-06-04 21:11:00,
2013-06-04 14:13:00,97.5,40.3,29.74,ESE,106,13.0,0.0,14,0.00,,,0.00,1022,WeatherHawk,2013-06-04 21:13:00,
2013-06-04 14:16:00,97.9,40.5,29.74,East,90,10.0,0.0,14,0.00,,,0.00,1018,WeatherHawk,2013-06-04 21:16:00,
2013-06-04 14:17:00,97.5,42.0,29.74,ESE,112,7.0,0.0,15,0.00,,,0.00,1016,WeatherHawk,2013-06-04 21:17:00,
2013-06-04 14:18:00,97.3,41.9,29.74,SSE,158,12.0,0.0,15,0.00,,,0.00,1013,WeatherHawk,2013-06-04 21:18:00,
2013-06-04 14:21:00,97.3,41.9,29.74,East,81,7.0,0.0,15,0.00,,,0.00,1004,WeatherHawk,2013-06-04 21:21:00,
2013-06-04 14:23:00,97.3,41.9,29.74,ESE,119,8.0,0.0,15,0.00,,,0.00,1008,WeatherHawk,2013-06-04 21:23:00,
2013-06-04 14:24:00,97.7,42.2,29.74,ESE,119,8.0,0.0,15,0.00,,,0.00,1003,WeatherHawk,2013-06-04 21:24:00,
2013-06-04 14:26:00,97.5,42.0,29.74,SSE,159,7.0,0.0,15,0.00,,,0.00,1004,WeatherHawk,2013-06-04 21:26:00,
2013-06-04 14:29:00,98.1,42.5,29.74,SSE,160,9.0,0.0,15,0.00,,,0.00,996,WeatherHawk,2013-06-04 21:29:00,
2013-06-04 14:30:00,98.1,42.5,29.74,SSE,158,6.0,0.0,15,0.00,,,0.00,993,WeatherHawk,2013-06-04 21:30:00,
2013-06-04 14:31:00,98.1,42.5,29.74,SSE,164,8.0,0.0,15,0.00,,,0.00,990,WeatherHawk,2013-06-04 21:31:00,
2013-06-04 14:35:00,98.4,42.8,29.74,SSE,154,5.0,0.0,15,0.00,,,0.00,985,WeatherHawk,2013-06-04 21:35:00,
2013-06-04 14:36:00,98.4,42.8,29.74,SSE,154,5.0,-999.0,15,0.00,,,0.00,985,WeatherHawk,2013-06-04 21:36:00,
2013-06-04 14:37:00,98.1,42.5,29.73,SE,125,6.0,0.0,15,0.00,,,0.00,979,WeatherHawk,2013-06-04 21:37:00,
2013-06-04 14:39:00,98.4,42.8,29.73,SSE,147,8.0,0.0,15,0.00,,,0.00,976,WeatherHawk,2013-06-04 21:39:00,
2013-06-04 14:41:00,98.2,42.6,29.73,South,183,11.0,-999.0,15,0.00,,,0.00,970,WeatherHawk,2013-06-04 21:41:00,
2013-06-04 14:43:00,99.0,41.4,29.73,SSE,162,12.0,0.0,14,0.00,,,0.00,963,WeatherHawk,2013-06-04 21:43:00,
2013-06-04 14:46:00,98.4,41.0,29.73,South,191,9.0,-999.0,14,0.00,,,0.00,958,WeatherHawk,2013-06-04 21:46:00,
2013-06-04 14:47:00,98.6,41.1,29.73,SSW,197,7.0,0.0,14,0.00,,,0.00,954,WeatherHawk,2013-06-04 21:47:00,
2013-06-04 14:50:00,98.8,41.2,29.73,South,190,10.0,0.0,14,0.00,,,0.00,951,WeatherHawk,2013-06-04 21:50:00,
2013-06-04 14:56:00,99.3,41.7,29.73,SSE,160,9.0,0.0,14,0.00,,,0.00,936,WeatherHawk,2013-06-04 21:56:00,
2013-06-04 14:58:00,99.0,41.4,29.73,South,177,8.0,0.0,14,0.00,,,0.00,930,WeatherHawk,2013-06-04 21:58:00,
2013-06-04 15:01:00,99.0,39.5,29.73,South,179,9.0,0.0,13,0.00,,,0.00,924,WeatherHawk,2013-06-04 22:01:00,
2013-06-04 15:02:00,99.3,41.7,29.73,SE,139,9.0,0.0,14,0.00,,,0.00,921,WeatherHawk,2013-06-04 22:02:00,
2013-06-04 15:06:00,98.8,41.2,29.73,South,182,6.0,-999.0,14,0.00,,,0.00,916,WeatherHawk,2013-06-04 22:06:00,
2013-06-04 15:11:00,99.5,41.8,29.73,SSE,147,5.0,0.0,14,0.00,,,0.00,901,WeatherHawk,2013-06-04 22:11:00,
2013-06-04 15:13:00,99.5,41.8,29.73,SE,127,5.0,0.0,14,0.00,,,0.00,894,WeatherHawk,2013-06-04 22:13:00,
2013-06-04 15:16:00,99.5,39.9,29.72,South,186,5.0,0.0,13,0.00,,,0.00,893,WeatherHawk,2013-06-04 22:16:00,
2013-06-04 15:17:00,99.7,40.0,29.72,SSW,201,10.0,0.0,13,0.00,,,0.00,890,WeatherHawk,2013-06-04 22:17:00,
2013-06-04 15:21:00,99.9,40.2,29.72,South,188,8.0,-999.0,13,0.00,,,0.00,880,WeatherHawk,2013-06-04 22:21:00,
2013-06-04 15:22:00,100.2,40.5,29.72,SW,222,9.0,0.0,13,0.00,,,0.00,875,WeatherHawk,2013-06-04 22:22:00,
2013-06-04 15:24:00,100.4,38.5,29.72,South,181,7.0,0.0,12,0.00,,,0.00,870,WeatherHawk,2013-06-04 22:24:00,
2013-06-04 15:26:00,100.0,40.3,29.72,South,173,7.0,-999.0,13,0.00,,,0.00,866,WeatherHawk,2013-06-04 22:26:00,
2013-06-04 15:28:00,99.9,42.1,29.72,SSW,206,4.0,0.0,14,0.00,,,0.00,858,WeatherHawk,2013-06-04 22:28:00,
2013-06-04 15:29:00,99.9,42.1,29.72,South,185,3.0,0.0,14,0.00,,,0.00,853,WeatherHawk,2013-06-04 22:29:00,
2013-06-04 15:31:00,99.9,42.1,29.72,South,185,3.0,-999.0,14,0.00,,,0.00,853,WeatherHawk,2013-06-04 22:31:00,
2013-06-04 15:34:00,101.5,39.4,29.71,South,181,12.0,0.0,12,0.00,,,0.00,836,WeatherHawk,2013-06-04 22:34:00,
2013-06-04 15:35:00,101.1,41.2,29.71,SSE,161,12.0,0.0,13,0.00,,,0.00,829,WeatherHawk,2013-06-04 22:35:00,
2013-06-04 15:36:00,101.1,41.2,29.71,SSE,161,12.0,0.0,13,0.00,,,0.00,829,WeatherHawk,2013-06-04 22:36:00,
2013-06-04 15:37:00,100.8,40.9,29.72,SSW,210,13.0,0.0,13,0.00,,,0.00,827,WeatherHawk,2013-06-04 22:37:00,
2013-06-04 15:41:00,100.4,40.6,29.71,SSW,192,4.0,-999.0,13,0.00,,,0.00,812,WeatherHawk,2013-06-04 22:41:00,
2013-06-04 15:42:00,100.4,40.6,29.71,SSE,156,7.0,0.0,13,0.00,,,0.00,809,WeatherHawk,2013-06-04 22:42:00,
2013-06-04 15:43:00,100.0,40.3,29.71,ESE,121,3.0,0.0,13,0.00,,,0.00,804,WeatherHawk,2013-06-04 22:43:00,
2013-06-04 15:46:00,100.0,40.3,29.71,SE,141,5.0,0.0,13,0.00,,,0.00,797,WeatherHawk,2013-06-04 22:46:00,
2013-06-04 15:48:00,100.4,40.6,29.71,SSE,162,6.0,0.0,13,0.00,,,0.00,790,WeatherHawk,2013-06-04 22:48:00,
2013-06-04 15:49:00,100.8,38.8,29.71,SSW,205,12.0,0.0,12,0.00,,,0.00,786,WeatherHawk,2013-06-04 22:49:00,
2013-06-04 15:52:00,100.9,39.0,29.71,SSW,205,6.0,0.0,12,0.00,,,0.00,778,WeatherHawk,2013-06-04 22:52:00,
2013-06-04 15:53:00,101.1,39.1,29.71,SSW,207,6.0,0.0,12,0.00,,,0.00,774,WeatherHawk,2013-06-04 22:53:00,
2013-06-04 15:54:00,101.3,39.2,29.71,SSW,202,5.0,0.0,12,0.00,,,0.00,771,WeatherHawk,2013-06-04 22:54:00,
2013-06-04 15:55:00,101.3,39.2,29.71,SSW,212,6.0,0.0,12,0.00,,,0.00,771,WeatherHawk,2013-06-04 22:55:00,
2013-06-04 15:58:00,100.9,41.0,29.71,South,181,12.0,0.0,13,0.00,,,0.00,760,WeatherHawk,2013-06-04 22:58:00,
2013-06-04 16:01:00,100.6,40.7,29.71,South,177,6.0,0.0,13,0.00,,,0.00,746,WeatherHawk,2013-06-04 23:01:00,
2013-06-04 16:02:00,100.2,42.4,29.71,SW,214,1.0,0.0,14,0.00,,,0.00,742,WeatherHawk,2013-06-04 23:02:00,
2013-06-04 16:05:00,100.6,40.7,29.71,South,190,8.0,0.0,13,0.00,,,0.00,732,WeatherHawk,2013-06-04 23:05:00,
2013-06-04 16:06:00,100.9,41.0,29.71,SSW,197,8.0,-999.0,13,0.00,,,0.00,731,WeatherHawk,2013-06-04 23:06:00,
2013-06-04 16:08:00,100.9,41.0,29.71,West,263,2.0,0.0,13,0.00,,,0.00,728,WeatherHawk,2013-06-04 23:08:00,
2013-06-04 16:11:00,100.8,40.9,29.70,SSE,168,2.0,-999.0,13,0.00,,,0.00,719,WeatherHawk,2013-06-04 23:11:00,
2013-06-04 16:12:00,100.8,40.9,29.70,SSE,168,2.0,0.0,13,0.00,,,0.00,719,WeatherHawk,2013-06-04 23:12:00,
2013-06-04 16:13:00,100.9,39.0,29.70,South,178,9.0,-999.0,12,0.00,,,0.00,706,WeatherHawk,2013-06-04 23:13:00,
2013-06-04 16:16:00,100.8,36.6,29.70,South,179,13.0,0.0,11,0.00,,,0.00,700,WeatherHawk,2013-06-04 23:16:00,
2013-06-04 16:21:00,101.5,37.1,29.70,South,175,9.0,0.0,11,0.00,,,0.00,674,WeatherHawk,2013-06-04 23:21:00,
2013-06-04 16:22:00,101.3,39.2,29.70,South,182,8.0,0.0,12,0.00,,,0.00,673,WeatherHawk,2013-06-04 23:22:00,
2013-06-04 16:23:00,101.5,39.4,29.70,SSW,196,10.0,0.0,12,0.00,,,0.00,668,WeatherHawk,2013-06-04 23:23:00,
2013-06-04 16:27:00,101.1,39.1,29.70,SSW,206,8.0,0.0,12,0.00,,,0.00,664,WeatherHawk,2013-06-04 23:27:00,
2013-06-04 16:32:00,101.3,37.0,29.70,SW,235,6.0,0.0,11,0.00,,,0.00,646,WeatherHawk,2013-06-04 23:32:00,
2013-06-04 16:34:00,101.7,37.3,29.70,SSW,202,5.0,0.0,11,0.00,,,0.00,632,WeatherHawk,2013-06-04 23:34:00,
2013-06-04 16:36:00,101.5,41.4,29.70,South,175,7.0,0.0,13,0.00,,,0.00,625,WeatherHawk,2013-06-04 23:36:00,
2013-06-04 16:37:00,101.5,41.4,29.70,South,175,7.0,0.0,13,0.00,,,0.00,625,WeatherHawk,2013-06-04 23:37:00,
2013-06-04 16:38:00,101.5,41.4,29.70,South,178,8.0,0.0,13,0.00,,,0.00,618,WeatherHawk,2013-06-04 23:38:00,
2013-06-04 16:42:00,100.8,40.9,29.70,SSE,151,7.0,0.0,13,0.00,,,0.00,604,WeatherHawk,2013-06-04 23:42:00,
2013-06-04 16:43:00,100.6,42.7,29.70,SSE,148,7.0,0.0,14,0.00,,,0.00,601,WeatherHawk,2013-06-04 23:43:00,
2013-06-04 16:44:00,100.8,42.8,29.70,SSE,154,13.0,0.0,14,0.00,,,0.00,596,WeatherHawk,2013-06-04 23:44:00,
2013-06-04 16:47:00,100.6,42.7,29.70,SE,138,5.0,0.0,14,0.00,,,0.00,586,WeatherHawk,2013-06-04 23:47:00,
2013-06-04 16:52:00,100.8,42.8,29.70,SE,129,9.0,0.0,14,0.00,,,0.00,574,WeatherHawk,2013-06-04 23:52:00,
2013-06-04 16:55:00,100.6,40.7,29.69,East,100,6.0,0.0,13,0.00,,,0.00,554,WeatherHawk,2013-06-04 23:55:00,
2013-06-04 16:56:00,100.6,40.7,29.69,ESE,122,6.0,0.0,13,0.00,,,0.00,546,WeatherHawk,2013-06-04 23:56:00,
2013-06-04 16:57:00,100.6,42.7,29.69,ESE,117,5.0,-999.0,14,0.00,,,0.00,546,WeatherHawk,2013-06-04 23:57:00,
2013-06-04 17:00:00,100.0,44.0,29.69,NW,321,5.0,0.0,15,0.00,,,0.00,536,WeatherHawk,2013-06-05 00:00:00,
2013-06-04 17:02:00,100.0,42.2,29.69,WSW,243,8.0,0.0,14,0.00,,,0.00,533,WeatherHawk,2013-06-05 00:02:00,
2013-06-04 17:05:00,101.7,41.6,29.69,SSW,208,10.0,0.0,13,0.00,,,0.00,518,WeatherHawk,2013-06-05 00:05:00,
2013-06-04 17:07:00,101.7,39.5,29.69,SSW,205,13.0,0.0,12,0.00,,,0.00,512,WeatherHawk,2013-06-05 00:07:00,
2013-06-04 17:08:00,101.5,41.4,29.69,SSW,212,11.0,0.0,13,0.00,,,0.00,505,WeatherHawk,2013-06-05 00:08:00,
2013-06-04 17:10:00,101.1,39.1,29.69,SW,220,8.0,0.0,12,0.00,,,0.00,498,WeatherHawk,2013-06-05 00:10:00,
2013-06-04 17:12:00,101.1,39.1,29.69,SW,215,6.0,0.0,12,0.00,,,0.00,490,WeatherHawk,2013-06-05 00:12:00,
2013-06-04 17:16:00,100.8,42.8,29.69,SE,138,12.0,0.0,14,0.00,,,0.00,470,WeatherHawk,2013-06-05 00:16:00,
2013-06-04 17:19:00,100.2,42.4,29.69,SSE,148,10.0,0.0,14,0.00,,,0.00,462,WeatherHawk,2013-06-05 00:19:00,
2013-06-04 17:20:00,100.4,42.5,29.69,SSE,160,11.0,0.0,14,0.00,,,0.00,458,WeatherHawk,2013-06-05 00:20:00,
2013-06-04 17:22:00,100.2,42.4,29.69,SSE,155,9.0,0.0,14,0.00,,,0.00,457,WeatherHawk,2013-06-05 00:22:00,
2013-06-04 17:24:00,100.2,42.4,29.69,ESE,123,9.0,0.0,14,0.00,,,0.00,446,WeatherHawk,2013-06-05 00:24:00,
2013-06-04 17:27:00,100.4,42.5,29.69,SSE,150,14.0,0.0,14,0.00,,,0.00,435,WeatherHawk,2013-06-05 00:27:00,
2013-06-04 17:29:00,100.4,44.3,29.69,SE,135,12.0,0.0,15,0.00,,,0.00,430,WeatherHawk,2013-06-05 00:29:00,
2013-06-04 17:33:00,100.2,44.2,29.69,ESE,118,11.0,0.0,15,0.00,,,0.00,405,WeatherHawk,2013-06-05 00:33:00,
2013-06-04 17:34:00,100.2,44.2,29.69,SE,128,12.0,0.0,15,0.00,,,0.00,399,WeatherHawk,2013-06-05 00:34:00,
2013-06-04 17:37:00,100.0,44.0,29.69,ESE,107,11.0,0.0,15,0.00,,,0.00,393,WeatherHawk,2013-06-05 00:37:00,
2013-06-04 17:42:00,99.5,45.3,29.69,ESE,112,14.0,0.0,16,0.00,,,0.00,368,WeatherHawk,2013-06-05 00:42:00,
2013-06-04 17:44:00,99.0,44.9,29.69,ESE,112,9.0,0.0,16,0.00,,,0.00,361,WeatherHawk,2013-06-05 00:44:00,
2013-06-04 17:45:00,99.3,46.8,29.69,ESE,115,10.0,0.0,17,0.00,,,0.00,355,WeatherHawk,2013-06-05 00:45:00,
2013-06-04 17:47:00,99.1,46.6,29.69,SE,125,8.0,0.0,17,0.00,,,0.00,351,WeatherHawk,2013-06-05 00:47:00,
2013-06-04 17:49:00,99.5,45.3,29.69,SE,142,9.0,0.0,16,0.00,,,0.00,338,WeatherHawk,2013-06-05 00:49:00,
2013-06-04 17:50:00,99.5,45.3,29.69,SE,136,12.0,0.0,16,0.00,,,0.00,339,WeatherHawk,2013-06-05 00:50:00,
2013-06-04 17:51:00,99.3,45.2,29.69,ESE,121,11.0,0.0,16,0.00,,,0.00,335,WeatherHawk,2013-06-05 00:51:00,
2013-06-04 17:56:00,99.0,44.9,29.69,SE,137,13.0,0.0,16,0.00,,,0.00,317,WeatherHawk,2013-06-05 00:56:00,
2013-06-04 17:57:00,99.0,44.9,29.69,SE,137,13.0,0.0,16,0.00,,,0.00,317,WeatherHawk,2013-06-05 00:57:00,
2013-06-04 18:02:00,99.1,45.0,29.69,SSE,152,10.0,0.0,16,0.00,,,0.00,295,WeatherHawk,2013-06-05 01:02:00,
2013-06-04 18:03:00,99.3,45.2,29.69,SE,129,11.0,0.0,16,0.00,,,0.00,291,WeatherHawk,2013-06-05 01:03:00,
2013-06-04 18:07:00,98.6,44.6,29.69,ESE,118,11.0,-999.0,16,0.00,,,0.00,279,WeatherHawk,2013-06-05 01:07:00,
2013-06-04 18:11:00,98.4,44.4,29.69,ESE,117,13.0,0.0,16,0.00,,,0.00,258,WeatherHawk,2013-06-05 01:11:00,
2013-06-04 18:12:00,98.4,44.4,29.69,SE,137,11.0,0.0,16,0.00,,,0.00,254,WeatherHawk,2013-06-05 01:12:00,
2013-06-04 18:13:00,98.4,44.4,29.69,SSE,149,13.0,0.0,16,0.00,,,0.00,251,WeatherHawk,2013-06-05 01:13:00,
2013-06-04 18:19:00,98.2,44.3,29.69,SSE,156,11.0,0.0,16,0.00,,,0.00,230,WeatherHawk,2013-06-05 01:19:00,
2013-06-04 18:20:00,98.1,45.8,29.69,SSE,150,11.0,0.0,17,0.00,,,0.00,227,WeatherHawk,2013-06-05 01:20:00,
2013-06-04 18:21:00,98.2,45.9,29.69,SE,142,9.0,0.0,17,0.00,,,0.00,223,WeatherHawk,2013-06-05 01:21:00,
2013-06-04 18:22:00,98.2,44.3,29.69,SSE,147,9.0,0.0,16,0.00,,,0.00,223,WeatherHawk,2013-06-05 01:22:00,
2013-06-04 18:26:00,98.4,44.4,29.69,SSE,156,9.0,0.0,16,0.00,,,0.00,205,WeatherHawk,2013-06-05 01:26:00,
2013-06-04 18:27:00,98.4,44.4,29.69,SSE,156,9.0,-999.0,16,0.00,,,0.00,205,WeatherHawk,2013-06-05 01:27:00,
2013-06-04 18:28:00,98.6,44.6,29.69,SE,146,7.0,0.0,16,0.00,,,0.00,200,WeatherHawk,2013-06-05 01:28:00,
2013-06-04 18:32:00,98.1,45.8,29.69,SSE,158,9.0,0.0,17,0.00,,,0.00,186,WeatherHawk,2013-06-05 01:32:00,
2013-06-04 18:34:00,98.1,44.2,29.69,SSE,151,9.0,0.0,16,0.00,,,0.00,176,WeatherHawk,2013-06-05 01:34:00,
2013-06-04 18:37:00,98.1,44.2,29.69,SSE,151,9.0,0.0,16,0.00,,,0.00,176,WeatherHawk,2013-06-05 01:37:00,
2013-06-04 18:38:00,97.9,44.0,29.69,SSE,160,11.0,0.0,16,0.00,,,0.00,163,WeatherHawk,2013-06-05 01:38:00,
2013-06-04 18:40:00,97.9,44.0,29.70,SSE,158,10.0,0.0,16,0.00,,,0.00,157,WeatherHawk,2013-06-05 01:40:00,
2013-06-04 18:45:00,97.5,45.3,29.70,SE,132,11.0,0.0,17,0.00,,,0.00,141,WeatherHawk,2013-06-05 01:45:00,
2013-06-04 18:46:00,97.5,45.3,29.70,SSE,153,10.0,0.0,17,0.00,,,0.00,133,WeatherHawk,2013-06-05 01:46:00,
2013-06-04 18:47:00,97.5,45.3,29.70,SSE,153,10.0,0.0,17,0.00,,,0.00,133,WeatherHawk,2013-06-05 01:47:00,
2013-06-04 18:49:00,97.3,45.2,29.70,SSE,155,12.0,0.0,17,0.00,,,0.00,129,WeatherHawk,2013-06-05 01:49:00,
2013-06-04 18:52:00,97.0,44.9,29.70,SSE,152,10.0,0.0,17,0.00,,,0.00,118,WeatherHawk,2013-06-05 01:52:00,
2013-06-04 18:53:00,97.0,44.9,29.70,SSE,152,9.0,0.0,17,0.00,,,0.00,113,WeatherHawk,2013-06-05 01:53:00,
2013-06-04 18:57:00,97.2,45.0,29.70,SE,145,11.0,0.0,17,0.00,,,0.00,112,WeatherHawk,2013-06-05 01:57:00,
2013-06-04 18:58:00,96.8,44.7,29.70,SSE,149,10.0,0.0,17,0.00,,,0.00,96,WeatherHawk,2013-06-05 01:58:00,
2013-06-04 19:00:00,96.6,44.6,29.70,SSE,158,9.0,0.0,17,0.00,,,0.00,93,WeatherHawk,2013-06-05 02:00:00,
2013-06-04 19:02:00,96.6,44.6,29.70,SE,145,9.0,0.0,17,0.00,,,0.00,92,WeatherHawk,2013-06-05 02:02:00,
2013-06-04 19:03:00,96.4,44.5,29.70,SSE,165,10.0,0.0,17,0.00,,,0.00,83,WeatherHawk,2013-06-05 02:03:00,
2013-06-04 19:04:00,96.4,44.5,29.70,SE,137,8.0,0.0,17,0.00,,,0.00,83,WeatherHawk,2013-06-05 02:04:00,
2013-06-04 19:07:00,96.3,44.3,29.70,SSE,154,9.0,0.0,17,0.00,,,0.00,75,WeatherHawk,2013-06-05 02:07:00,
2013-06-04 19:10:00,96.1,44.2,29.70,SSE,157,10.0,0.0,17,0.00,,,0.00,66,WeatherHawk,2013-06-05 02:10:00,
2013-06-04 19:12:00,96.1,44.2,29.70,SSE,157,10.0,-999.0,17,0.00,,,0.00,66,WeatherHawk,2013-06-05 02:12:00,
2013-06-04 19:16:00,95.7,45.4,29.71,SE,144,9.0,0.0,18,0.00,,,0.00,52,WeatherHawk,2013-06-05 02:16:00,
2013-06-04 19:17:00,95.5,45.2,29.71,SSE,150,9.0,0.0,18,0.00,,,0.00,49,WeatherHawk,2013-06-05 02:17:00,
2013-06-04 19:18:00,95.4,45.1,29.71,SSE,159,11.0,0.0,18,0.00,,,0.00,45,WeatherHawk,2013-06-05 02:18:00,
2013-06-04 19:19:00,95.4,45.1,29.71,SSE,157,11.0,0.0,18,0.00,,,0.00,43,WeatherHawk,2013-06-05 02:19:00,
2013-06-04 19:22:00,95.2,44.9,29.71,SE,146,10.0,0.0,18,0.00,,,0.00,39,WeatherHawk,2013-06-05 02:22:00,
2013-06-04 19:26:00,94.8,44.7,29.71,SE,142,10.0,0.0,18,0.00,,,0.00,27,WeatherHawk,2013-06-05 02:26:00,
2013-06-04 19:27:00,94.8,44.7,29.71,SE,142,10.0,0.0,18,0.00,,,0.00,27,WeatherHawk,2013-06-05 02:27:00,
2013-06-04 19:29:00,94.6,44.5,29.71,SSE,153,10.0,0.0,18,0.00,,,0.00,22,WeatherHawk,2013-06-05 02:29:00,
2013-06-04 19:32:00,94.3,45.6,29.71,SE,146,10.0,0.0,19,0.00,,,0.00,17,WeatherHawk,2013-06-05 02:32:00,
2013-06-04 19:33:00,94.3,45.6,29.71,SSE,150,10.0,0.0,19,0.00,,,0.00,15,WeatherHawk,2013-06-05 02:33:00,
2013-06-04 19:34:00,94.3,45.6,29.71,SSE,150,10.0,0.0,19,0.00,,,0.00,15,WeatherHawk,2013-06-05 02:34:00,
2013-06-04 19:37:00,93.9,45.4,29.71,SSE,147,12.0,0.0,19,0.00,,,0.00,10,WeatherHawk,2013-06-05 02:37:00,
2013-06-04 19:39:00,93.7,45.2,29.71,SE,146,11.0,0.0,19,0.00,,,0.00,8,WeatherHawk,2013-06-05 02:39:00,
2013-06-04 19:40:00,93.7,45.2,29.71,SE,138,9.0,0.0,19,0.00,,,0.00,8,WeatherHawk,2013-06-05 02:40:00,
2013-06-04 19:43:00,93.6,45.1,29.71,SE,142,10.0,0.0,19,0.00,,,0.00,4,WeatherHawk,2013-06-05 02:43:00,
2013-06-04 19:44:00,93.4,44.9,29.71,SE,139,9.0,0.0,19,0.00,,,0.00,4,WeatherHawk,2013-06-05 02:44:00,
2013-06-04 19:46:00,93.4,44.9,29.71,SE,133,9.0,0.0,19,0.00,,,0.00,3,WeatherHawk,2013-06-05 02:46:00,
2013-06-04 19:47:00,93.4,44.9,29.71,SE,133,9.0,-999.0,19,0.00,,,0.00,3,WeatherHawk,2013-06-05 02:47:00,
2013-06-04 19:48:00,93.0,44.6,29.71,SE,128,8.0,0.0,19,0.00,,,0.00,3,WeatherHawk,2013-06-05 02:48:00,
2013-06-04 19:50:00,92.8,45.8,29.71,SE,137,8.0,0.0,20,0.00,,,0.00,2,WeatherHawk,2013-06-05 02:50:00,
2013-06-04 19:52:00,92.8,45.8,29.71,SE,137,8.0,-999.0,20,0.00,,,0.00,2,WeatherHawk,2013-06-05 02:52:00,
2013-06-04 19:54:00,92.3,45.4,29.71,SE,139,9.0,0.0,20,0.00,,,0.00,2,WeatherHawk,2013-06-05 02:54:00,
2013-06-04 19:57:00,92.1,45.2,29.71,SE,142,10.0,0.0,20,0.00,,,0.00,1,WeatherHawk,2013-06-05 02:57:00,
2013-06-04 19:58:00,92.1,45.2,29.71,SE,138,10.0,0.0,20,0.00,,,0.00,1,WeatherHawk,2013-06-05 02:58:00,
2013-06-04 20:01:00,91.9,46.4,29.71,SE,140,9.0,0.0,21,0.00,,,0.00,0,WeatherHawk,2013-06-05 03:01:00,
2013-06-04 20:02:00,91.8,46.2,29.71,SE,139,10.0,0.0,21,0.00,,,0.00,0,WeatherHawk,2013-06-05 03:02:00,
2013-06-04 20:06:00,91.6,46.1,29.71,SSE,152,10.0,0.0,21,0.00,,,0.00,0,WeatherHawk,2013-06-05 03:06:00,
2013-06-04 20:07:00,91.6,46.1,29.71,SSE,152,10.0,-999.0,21,0.00,,,0.00,0,WeatherHawk,2013-06-05 03:07:00,
2013-06-04 20:08:00,91.6,46.1,29.71,SE,145,10.0,0.0,21,0.00,,,0.00,0,WeatherHawk,2013-06-05 03:08:00,
2013-06-04 20:12:00,91.4,45.9,29.71,SSE,148,9.0,0.0,21,0.00,,,0.00,0,WeatherHawk,2013-06-05 03:12:00,
2013-06-04 20:15:00,91.0,46.9,29.72,SE,133,9.0,0.0,22,0.00,,,0.00,0,WeatherHawk,2013-06-05 03:15:00,
2013-06-04 20:16:00,90.9,46.7,29.72,SE,133,9.0,0.0,22,0.00,,,0.00,0,WeatherHawk,2013-06-05 03:16:00,
2013-06-04 20:18:00,90.7,46.6,29.72,ESE,121,9.0,0.0,22,0.00,,,0.00,0,WeatherHawk,2013-06-05 03:18:00,
2013-06-04 20:20:00,90.3,46.3,29.72,SE,128,9.0,0.0,22,0.00,,,0.00,0,WeatherHawk,2013-06-05 03:20:00,
2013-06-04 20:22:00,90.3,46.3,29.72,SE,130,10.0,0.0,22,0.00,,,0.00,0,WeatherHawk,2013-06-05 03:22:00,
2013-06-04 20:27:00,89.6,46.9,29.72,SE,127,13.0,0.0,23,0.00,,,0.00,0,WeatherHawk,2013-06-05 03:27:00,
2013-06-04 20:28:00,89.4,46.7,29.72,SE,131,13.0,0.0,23,0.00,,,0.00,0,WeatherHawk,2013-06-05 03:28:00,
2013-06-04 20:29:00,89.4,47.8,29.72,SE,130,9.0,0.0,24,0.00,,,0.00,0,WeatherHawk,2013-06-05 03:29:00,
2013-06-04 20:32:00,89.1,47.5,29.72,SE,138,11.0,0.0,24,0.00,,,0.00,0,WeatherHawk,2013-06-05 03:32:00,
2013-06-04 20:37:00,88.7,48.3,29.72,SE,125,14.0,0.0,25,0.00,,,0.00,1,WeatherHawk,2013-06-05 03:37:00,
2013-06-04 20:40:00,88.3,48.0,29.72,SE,137,14.0,0.0,25,0.00,,,0.00,0,WeatherHawk,2013-06-05 03:40:00,
2013-06-04 20:42:00,88.3,48.0,29.72,SE,139,12.0,0.0,25,0.00,,,0.00,0,WeatherHawk,2013-06-05 03:42:00,
2013-06-04 20:46:00,88.0,47.7,29.73,SE,129,11.0,0.0,25,0.00,,,0.00,0,WeatherHawk,2013-06-05 03:46:00,
2013-06-04 20:47:00,88.0,47.7,29.73,SE,129,11.0,0.0,25,0.00,,,0.00,0,WeatherHawk,2013-06-05 03:47:00,
2013-06-04 20:48:00,88.0,48.8,29.73,SE,135,12.0,0.0,26,0.00,,,0.00,0,WeatherHawk,2013-06-05 03:48:00,
2013-06-04 20:52:00,87.8,48.6,29.72,SE,143,13.0,0.0,26,0.00,,,0.00,0,WeatherHawk,2013-06-05 03:52:00,
2013-06-04 20:54:00,87.6,48.5,29.73,SE,145,10.0,0.0,26,0.00,,,0.00,0,WeatherHawk,2013-06-05 03:54:00,
2013-06-04 20:57:00,87.6,48.5,29.72,SE,143,13.0,0.0,26,0.00,,,0.00,0,WeatherHawk,2013-06-05 03:57:00,
2013-06-04 21:02:00,87.6,48.5,29.73,SSE,147,14.0,0.0,26,0.00,,,0.00,0,WeatherHawk,2013-06-05 04:02:00,
2013-06-04 21:03:00,87.4,48.3,29.73,SE,142,13.0,0.0,26,0.00,,,0.00,0,WeatherHawk,2013-06-05 04:03:00,
2013-06-04 21:09:00,87.1,49.0,29.73,SSE,147,12.0,0.0,27,0.00,,,0.00,0,WeatherHawk,2013-06-05 04:09:00,
2013-06-04 21:11:00,86.9,48.9,29.73,SE,146,10.0,0.0,27,0.00,,,0.00,0,WeatherHawk,2013-06-05 04:11:00,
2013-06-04 21:12:00,86.9,48.9,29.73,SE,146,10.0,0.0,27,0.00,,,0.00,0,WeatherHawk,2013-06-05 04:12:00,
2013-06-04 21:13:00,86.9,48.9,29.73,SE,144,12.0,0.0,27,0.00,,,0.00,0,WeatherHawk,2013-06-05 04:13:00,
2013-06-04 21:17:00,86.9,48.9,29.73,SE,145,11.0,0.0,27,0.00,,,0.00,0,WeatherHawk,2013-06-05 04:17:00,
2013-06-04 21:18:00,86.5,48.6,29.73,SE,136,11.0,0.0,27,0.00,,,0.00,0,WeatherHawk,2013-06-05 04:18:00,
2013-06-04 21:20:00,86.4,48.4,29.73,SE,144,11.0,0.0,27,0.00,,,0.00,0,WeatherHawk,2013-06-05 04:20:00,
2013-06-04 21:22:00,86.2,48.2,29.73,SSE,147,9.0,0.0,27,0.00,,,0.00,0,WeatherHawk,2013-06-05 04:22:00,
2013-06-04 21:26:00,86.0,48.1,29.73,SSE,153,11.0,0.0,27,0.00,,,0.00,1,WeatherHawk,2013-06-05 04:26:00,
2013-06-04 21:27:00,86.0,48.1,29.73,SSE,153,11.0,0.0,27,0.00,,,0.00,1,WeatherHawk,2013-06-05 04:27:00,
2013-06-04 21:30:00,86.0,48.1,29.73,SE,143,14.0,0.0,27,0.00,,,0.00,0,WeatherHawk,2013-06-05 04:30:00,
2013-06-04 21:32:00,86.0,48.1,29.73,SE,140,12.0,-999.0,27,0.00,,,0.00,0,WeatherHawk,2013-06-05 04:32:00,
2013-06-04 21:37:00,86.0,48.1,29.73,SE,137,10.0,0.0,27,0.00,,,0.00,0,WeatherHawk,2013-06-05 04:37:00,
2013-06-04 21:39:00,85.8,47.9,29.73,SE,141,9.0,0.0,27,0.00,,,0.00,0,WeatherHawk,2013-06-05 04:39:00,
2013-06-04 21:40:00,85.6,47.8,29.73,SE,133,12.0,0.0,27,0.00,,,0.00,0,WeatherHawk,2013-06-05 04:40:00,
2013-06-04 21:43:00,85.5,47.6,29.74,SE,135,10.0,0.0,27,0.00,,,0.00,0,WeatherHawk,2013-06-05 04:43:00,
2013-06-04 21:46:00,85.3,48.5,29.74,SE,140,10.0,0.0,28,0.00,,,0.00,0,WeatherHawk,2013-06-05 04:46:00,
2013-06-04 21:47:00,85.3,48.5,29.74,SE,140,10.0,0.0,28,0.00,,,0.00,0,WeatherHawk,2013-06-05 04:47:00,
2013-06-04 21:52:00,85.1,48.3,29.74,SE,131,9.0,-999.0,28,0.00,,,0.00,0,WeatherHawk,2013-06-05 04:52:00,
2013-06-04 21:54:00,84.9,48.1,29.74,SE,132,11.0,0.0,28,0.00,,,0.00,0,WeatherHawk,2013-06-05 04:54:00,
2013-06-04 21:57:00,84.7,48.9,29.74,SE,140,10.0,0.0,29,0.00,,,0.00,0,WeatherHawk,2013-06-05 04:57:00,
2013-06-04 21:59:00,84.7,48.9,29.74,SE,136,12.0,0.0,29,0.00,,,0.00,0,WeatherHawk,2013-06-05 04:59:00,
2013-06-04 22:00:00,84.6,48.8,29.74,SE,134,11.0,0.0,29,0.00,,,0.00,0,WeatherHawk,2013-06-05 05:00:00,
2013-06-04 22:04:00,84.4,49.5,29.74,SE,140,9.0,0.0,30,0.00,,,0.00,0,WeatherHawk,2013-06-05 05:04:00,
2013-06-04 22:06:00,84.2,49.4,29.74,SE,139,12.0,0.0,30,0.00,,,0.00,0,WeatherHawk,2013-06-05 05:06:00,
2013-06-04 22:07:00,84.2,49.4,29.74,SE,139,12.0,0.0,30,0.00,,,0.00,0,WeatherHawk,2013-06-05 05:07:00,
2013-06-04 22:08:00,84.0,49.2,29.74,SE,138,11.0,0.0,30,0.00,,,0.00,0,WeatherHawk,2013-06-05 05:08:00,
2013-06-04 22:11:00,83.7,49.8,29.74,SE,129,11.0,0.0,31,0.00,,,0.00,0,WeatherHawk,2013-06-05 05:11:00,
2013-06-04 22:12:00,83.7,49.8,29.74,SE,129,11.0,0.0,31,0.00,,,0.00,0,WeatherHawk,2013-06-05 05:12:00,
2013-06-04 22:14:00,83.5,48.8,29.74,SE,132,8.0,0.0,30,0.00,,,0.00,0,WeatherHawk,2013-06-05 05:14:00,
2013-06-04 22:17:00,83.1,48.4,29.75,SE,129,10.0,-999.0,30,0.00,,,0.00,0,WeatherHawk,2013-06-05 05:17:00,
2013-06-04 22:18:00,82.9,48.3,29.75,SE,137,9.0,0.0,30,0.00,,,0.00,0,WeatherHawk,2013-06-05 05:18:00,
2013-06-04 22:20:00,82.9,48.3,29.75,SE,138,11.0,0.0,30,0.00,,,0.00,0,WeatherHawk,2013-06-05 05:20:00,
2013-06-04 22:22:00,82.9,48.3,29.75,SSE,147,11.0,0.0,30,0.00,,,0.00,0,WeatherHawk,2013-06-05 05:22:00,
2013-06-04 22:24:00,82.6,48.0,29.75,SE,141,10.0,0.0,30,0.00,,,0.00,0,WeatherHawk,2013-06-05 05:24:00,
2013-06-04 22:26:00,82.4,47.8,29.75,SE,139,11.0,0.0,30,0.00,,,0.00,0,WeatherHawk,2013-06-05 05:26:00,
2013-06-04 22:27:00,82.4,47.8,29.75,SE,139,11.0,0.0,30,0.00,,,0.00,0,WeatherHawk,2013-06-05 05:27:00,
2013-06-04 22:30:00,82.2,47.7,29.75,SE,138,10.0,0.0,30,0.00,,,0.00,0,WeatherHawk,2013-06-05 05:30:00,
2013-06-04 22:32:00,82.0,47.5,29.75,SSE,149,12.0,0.0,30,0.00,,,0.00,0,WeatherHawk,2013-06-05 05:32:00,
2013-06-04 22:33:00,82.0,47.5,29.75,SE,136,10.0,0.0,30,0.00,,,0.00,0,WeatherHawk,2013-06-05 05:33:00,
2013-06-04 22:37:00,82.0,48.4,29.75,SE,142,9.0,0.0,31,0.00,,,0.00,0,WeatherHawk,2013-06-05 05:37:00,
2013-06-04 22:38:00,82.0,48.4,29.75,SE,137,10.0,0.0,31,0.00,,,0.00,0,WeatherHawk,2013-06-05 05:38:00,
2013-06-04 22:42:00,81.9,48.2,29.75,SE,133,9.0,0.0,31,0.00,,,0.00,0,WeatherHawk,2013-06-05 05:42:00,
2013-06-04 22:47:00,81.7,48.1,29.75,SE,133,9.0,0.0,31,0.00,,,0.00,0,WeatherHawk,2013-06-05 05:47:00,
2013-06-04 22:48:00,81.5,47.9,29.75,SE,130,10.0,0.0,31,0.00,,,0.00,0,WeatherHawk,2013-06-05 05:48:00,
2013-06-04 22:52:00,81.5,47.0,29.75,SE,142,11.0,0.0,30,0.00,,,0.00,0,WeatherHawk,2013-06-05 05:52:00,
2013-06-04 22:58:00,81.7,47.2,29.75,SE,145,11.0,0.0,30,0.00,,,0.00,0,WeatherHawk,2013-06-05 05:58:00,
2013-06-04 23:02:00,81.7,47.2,29.75,SE,127,8.0,-999.0,30,0.00,,,0.00,0,WeatherHawk,2013-06-05 06:02:00,
2013-06-04 23:05:00,81.3,46.9,29.75,SE,132,9.0,0.0,30,0.00,,,0.00,0,WeatherHawk,2013-06-05 06:05:00,
2013-06-04 23:07:00,81.3,46.9,29.75,SE,135,11.0,0.0,30,0.00,,,0.00,1,WeatherHawk,2013-06-05 06:07:00,
2013-06-04 23:09:00,81.1,46.7,29.75,SE,133,8.0,0.0,30,0.00,,,0.00,0,WeatherHawk,2013-06-05 06:09:00,
2013-06-04 23:12:00,81.1,46.7,29.75,SE,133,8.0,-999.0,30,0.00,,,0.00,0,WeatherHawk,2013-06-05 06:12:00,
2013-06-04 23:16:00,80.8,46.4,29.75,SE,133,9.0,0.0,30,0.00,,,0.00,0,WeatherHawk,2013-06-05 06:16:00,
2013-06-04 23:17:00,80.8,46.4,29.75,SE,134,10.0,-999.0,30,0.00,,,0.00,0,WeatherHawk,2013-06-05 06:17:00,
2013-06-04 23:18:00,80.8,46.4,29.75,SE,132,11.0,0.0,30,0.00,,,0.00,0,WeatherHawk,2013-06-05 06:18:00,
2013-06-04 23:22:00,80.6,46.3,29.76,SE,136,9.0,0.0,30,0.00,,,0.00,0,WeatherHawk,2013-06-05 06:22:00,
2013-06-04 23:23:00,80.6,46.3,29.76,SE,131,9.0,0.0,30,0.00,,,0.00,0,WeatherHawk,2013-06-05 06:23:00,
2013-06-04 23:28:00,80.4,46.1,29.76,SE,131,9.0,0.0,30,0.00,,,0.00,1,WeatherHawk,2013-06-05 06:28:00,
2013-06-04 23:32:00,80.4,46.1,29.76,SE,128,9.0,0.0,30,0.00,,,0.00,0,WeatherHawk,2013-06-05 06:32:00,
2013-06-04 23:35:00,80.2,46.0,29.76,SE,140,6.0,0.0,30,0.00,,,0.00,0,WeatherHawk,2013-06-05 06:35:00,
2013-06-04 23:36:00,80.2,46.0,29.76,SE,124,5.0,0.0,30,0.00,,,0.00,0,WeatherHawk,2013-06-05 06:36:00,
2013-06-04 23:37:00,80.2,46.0,29.76,SE,124,5.0,0.0,30,0.00,,,0.00,0,WeatherHawk,2013-06-05 06:37:00,
2013-06-04 23:42:00,80.2,46.0,29.76,South,175,1.0,-999.0,30,0.00,,,0.00,0,WeatherHawk,2013-06-05 06:42:00,
2013-06-04 23:44:00,80.2,46.0,29.76,SSE,147,4.0,0.0,30,0.00,,,0.00,0,WeatherHawk,2013-06-05 06:44:00,
2013-06-04 23:45:00,80.2,46.0,29.76,SSE,155,3.0,0.0,30,0.00,,,0.00,0,WeatherHawk,2013-06-05 06:45:00,
2013-06-04 23:47:00,80.2,46.0,29.76,SE,125,3.0,0.0,30,0.00,,,0.00,0,WeatherHawk,2013-06-05 06:47:00,
2013-06-04 23:50:00,80.1,45.8,29.77,ESE,103,0.0,0.0,30,0.00,,,0.00,0,WeatherHawk,2013-06-05 06:50:00,
2013-06-04 23:52:00,80.1,45.8,29.77,ESE,103,0.0,0.0,30,0.00,,,0.00,0,WeatherHawk,2013-06-05 06:52:00,
2013-06-04 23:53:00,79.9,45.7,29.77,West,279,1.0,0.0,30,0.00,,,0.00,0,WeatherHawk,2013-06-05 06:53:00,
2013-06-04 23:57:00,79.7,45.5,29.77,SE,130,1.0,0.0,30,0.00,,,0.00,0,WeatherHawk,2013-06-05 06:57:00,